Wetterdaten: Dienstag, 28.01.2014
Datum Zeit Temp. Aussen +5cm Feuchte Auss Luftdruck Regen Sonnenschein Regendauer UV Solar Windben
28.01.2014 00:00 4,0 C 2,2 C 91 % 995,9 hPa 0,0 l/m 0 min 0 min 0,0 UV-I 0 W/m 5,1 km/h (1 Bft)
28.01.2014 00:02 4,0 C 2,2 C 91 % 995,9 hPa 0,0 l/m 0 min 0 min 0,0 UV-I 0 W/m 10,3 km/h (2 Bft)
28.01.2014 00:04 4,0 C 2,2 C 91 % 995,9 hPa 0,0 l/m 0 min 0 min 0,0 UV-I 0 W/m 2,6 km/h (1 Bft)
28.01.2014 00:06 4,0 C 2,2 C 91 % 995,9 hPa 0,0 l/m 0 min 0 min 0,0 UV-I 0 W/m 0,0 km/h (0 Bft)
28.01.2014 00:08 4,0 C 2,2 C 91 % 995,8 hPa 0,0 l/m 0 min 0 min 0,0 UV-I 0 W/m 2,6 km/h (1 Bft)
28.01.2014 00:10 4,0 C 2,2 C 91 % 995,8 hPa 0,0 l/m 0 min 0 min 0,0 UV-I 0 W/m 0,0 km/h (0 Bft)
28.01.2014 00:12 3,9 C 2,2 C 91 % 995,8 hPa 0,0 l/m 0 min 0 min 0,0 UV-I 0 W/m 10,3 km/h (2 Bft)
28.01.2014 00:14 3,9 C 2,2 C 91 % 995,8 hPa 0,0 l/m 0 min 0 min 0,0 UV-I 0 W/m 2,6 km/h (1 Bft)
28.01.2014 00:16 3,9 C 2,2 C 91 % 995,7 hPa 0,0 l/m 0 min 0 min 0,0 UV-I 0 W/m 0,0 km/h (0 Bft)
28.01.2014 00:18 3,9 C 2,2 C 91 % 995,8 hPa 0,0 l/m 0 min 0 min 0,0 UV-I 0 W/m 2,6 km/h (1 Bft)
28.01.2014 00:20 3,9 C 2,2 C 91 % 995,7 hPa 0,0 l/m 0 min 0 min 0,0 UV-I 0 W/m 0,0 km/h (0 Bft)
28.01.2014 00:22 3,9 C 2,2 C 91 % 995,7 hPa 0,0 l/m 0 min 0 min 0,0 UV-I 0 W/m 10,3 km/h (2 Bft)
28.01.2014 00:24 3,9 C 2,2 C 91 % 995,7 hPa 0,0 l/m 0 min 0 min 0,0 UV-I 0 W/m 2,6 km/h (1 Bft)
28.01.2014 00:26 3,9 C 2,2 C 91 % 995,7 hPa 0,0 l/m 0 min 0 min 0,0 UV-I 0 W/m 7,7 km/h (2 Bft)
28.01.2014 00:28 3,9 C 2,2 C 91 % 995,6 hPa 0,0 l/m 0 min 0 min 0,0 UV-I 0 W/m 7,7 km/h (2 Bft)
28.01.2014 00:30 3,9 C 2,2 C 91 % 995,7 hPa 0,0 l/m 0 min 0 min 0,0 UV-I 0 W/m 5,1 km/h (1 Bft)
28.01.2014 00:32 3,9 C 2,2 C 91 % 995,7 hPa 0,0 l/m 0 min 0 min 0,0 UV-I 0 W/m 5,1 km/h (1 Bft)
28.01.2014 00:34 3,9 C 1,7 C 91 % 995,7 hPa 0,0 l/m 0 min 0 min 0,0 UV-I 0 W/m 0,0 km/h (0 Bft)
28.01.2014 00:36 3,8 C 1,7 C 91 % 995,8 hPa 0,0 l/m 0 min 0 min 0,0 UV-I 0 W/m 10,3 km/h (2 Bft)
28.01.2014 00:38 3,8 C 2,2 C 91 % 995,7 hPa 0,0 l/m 0 min 0 min 0,0 UV-I 0 W/m 2,6 km/h (1 Bft)
28.01.2014 00:40 3,8 C 2,2 C 91 % 995,7 hPa 0,0 l/m 0 min 0 min 0,0 UV-I 0 W/m 7,7 km/h (2 Bft)
28.01.2014 00:42 3,8 C 2,2 C 91 % 995,7 hPa 0,0 l/m 0 min 0 min 0,0 UV-I 0 W/m 12,9 km/h (3 Bft)
28.01.2014 00:44 3,8 C 2,2 C 91 % 995,8 hPa 0,0 l/m 0 min 0 min 0,0 UV-I 0 W/m 7,7 km/h (2 Bft)
28.01.2014 00:46 3,8 C 2,2 C 91 % 995,8 hPa 0,0 l/m 0 min 0 min 0,0 UV-I 0 W/m 7,7 km/h (2 Bft)
28.01.2014 00:48 3,8 C 2,2 C 91 % 995,8 hPa 0,0 l/m 0 min 0 min 0,0 UV-I 0 W/m 7,7 km/h (2 Bft)
28.01.2014 00:50 3,8 C 2,2 C 91 % 995,8 hPa 0,0 l/m 0 min 0 min 0,0 UV-I 0 W/m 7,7 km/h (2 Bft)
28.01.2014 00:52 3,8 C 1,7 C 91 % 995,8 hPa 0,0 l/m 0 min 0 min 0,0 UV-I 0 W/m 10,3 km/h (2 Bft)
28.01.2014 00:54 3,7 C 1,7 C 91 % 995,8 hPa 0,0 l/m 0 min 0 min 0,0 UV-I 0 W/m 5,1 km/h (1 Bft)
28.01.2014 00:56 3,7 C 2,2 C 91 % 995,9 hPa 0,0 l/m 0 min 0 min 0,0 UV-I 0 W/m 5,1 km/h (1 Bft)
28.01.2014 00:58 3,7 C 2,2 C 91 % 995,9 hPa 0,0 l/m 0 min 0 min 0,0 UV-I 0 W/m 7,7 km/h (2 Bft)
28.01.2014 01:00 3,7 C 2,2 C 91 % 995,9 hPa 0,0 l/m 0 min 0 min 0,0 UV-I 0 W/m 2,6 km/h (1 Bft)
28.01.2014 01:02 3,7 C 2,2 C 91 % 995,9 hPa 0,0 l/m 0 min 0 min 0,0 UV-I 0 W/m 7,7 km/h (2 Bft)
28.01.2014 01:04 3,7 C 2,2 C 91 % 995,8 hPa 0,0 l/m 0 min 0 min 0,0 UV-I 0 W/m 7,7 km/h (2 Bft)
28.01.2014 01:06 3,7 C 2,2 C 91 % 995,9 hPa 0,0 l/m 0 min 0 min 0,0 UV-I 0 W/m 10,3 km/h (2 Bft)
28.01.2014 01:08 3,7 C 2,2 C 91 % 995,9 hPa 0,0 l/m 0 min 0 min 0,0 UV-I 0 W/m 2,6 km/h (1 Bft)
28.01.2014 01:10 3,7 C 2,2 C 91 % 996,0 hPa 0,0 l/m 0 min 0 min 0,0 UV-I 0 W/m 10,3 km/h (2 Bft)
28.01.2014 01:12 3,7 C 2,2 C 91 % 995,9 hPa 0,0 l/m 0 min 0 min 0,0 UV-I 0 W/m 0,0 km/h (0 Bft)
28.01.2014 01:14 3,7 C 2,2 C 91 % 996,0 hPa 0,0 l/m 0 min 0 min 0,0 UV-I 0 W/m 5,1 km/h (1 Bft)
28.01.2014 01:16 3,7 C 2,2 C 91 % 996,0 hPa 0,0 l/m 0 min 0 min 0,0 UV-I 0 W/m 10,3 km/h (2 Bft)
28.01.2014 01:18 3,7 C 2,2 C 91 % 996,0 hPa 0,0 l/m 0 min 0 min 0,0 UV-I 0 W/m 12,9 km/h (3 Bft)
28.01.2014 01:20 3,7 C 2,2 C 91 % 996,0 hPa 0,0 l/m 0 min 2 min 0,0 UV-I 0 W/m 12,9 km/h (3 Bft)
28.01.2014 01:22 3,7 C 2,2 C 91 % 996,1 hPa 0,2 l/m 0 min 2 min 0,0 UV-I 0 W/m 10,3 km/h (2 Bft)
28.01.2014 01:24 3,7 C 2,8 C 91 % 996,1 hPa 0,0 l/m 0 min 2 min 0,0 UV-I 0 W/m 10,3 km/h (2 Bft)
28.01.2014 01:26 3,7 C 2,8 C 91 % 996,0 hPa 0,0 l/m 0 min 0 min 0,0 UV-I 0 W/m 7,7 km/h (2 Bft)
28.01.2014 01:28 3,7 C 2,8 C 91 % 995,9 hPa 0,0 l/m 0 min 0 min 0,0 UV-I 0 W/m 10,3 km/h (2 Bft)
28.01.2014 01:30 3,7 C 2,8 C 91 % 996,0 hPa 0,0 l/m 0 min 0 min 0,0 UV-I 0 W/m 7,7 km/h (2 Bft)
28.01.2014 01:32 3,7 C 2,8 C 91 % 996,0 hPa 0,0 l/m 0 min 0 min 0,0 UV-I 0 W/m 5,1 km/h (1 Bft)
28.01.2014 01:34 3,7 C 2,8 C 92 % 996,0 hPa 0,0 l/m 0 min 0 min 0,0 UV-I 0 W/m 10,3 km/h (2 Bft)
28.01.2014 01:36 3,7 C 2,8 C 92 % 995,9 hPa 0,0 l/m 0 min 0 min 0,0 UV-I 0 W/m 5,1 km/h (1 Bft)
28.01.2014 01:38 3,7 C 2,8 C 92 % 996,0 hPa 0,0 l/m 0 min 0 min 0,0 UV-I 0 W/m 7,7 km/h (2 Bft)
28.01.2014 01:40 3,8 C 2,8 C 92 % 996,0 hPa 0,0 l/m 0 min 0 min 0,0 UV-I 0 W/m 10,3 km/h (2 Bft)
28.01.2014 01:42 3,8 C 2,8 C 92 % 996,0 hPa 0,0 l/m 0 min 0 min 0,0 UV-I 0 W/m 10,3 km/h (2 Bft)
28.01.2014 01:44 3,8 C 2,8 C 92 % 996,0 hPa 0,0 l/m 0 min 0 min 0,0 UV-I 0 W/m 15,4 km/h (3 Bft)
28.01.2014 01:46 3,8 C 2,8 C 92 % 996,0 hPa 0,0 l/m 0 min 0 min 0,0 UV-I 0 W/m 15,4 km/h (3 Bft)
28.01.2014 01:48 3,8 C 2,8 C 92 % 996,1 hPa 0,0 l/m 0 min 0 min 0,0 UV-I 0 W/m 10,3 km/h (2 Bft)
28.01.2014 01:50 3,8 C 2,8 C 92 % 996,2 hPa 0,0 l/m 0 min 0 min 0,0 UV-I 0 W/m 10,3 km/h (2 Bft)
28.01.2014 01:52 3,8 C 2,8 C 92 % 996,2 hPa 0,0 l/m 0 min 0 min 0,0 UV-I 0 W/m 5,1 km/h (1 Bft)
28.01.2014 01:54 3,9 C 2,8 C 92 % 996,2 hPa 0,0 l/m 0 min 0 min 0,0 UV-I 0 W/m 12,9 km/h (3 Bft)
28.01.2014 01:56 3,9 C 2,8 C 92 % 996,2 hPa 0,0 l/m 0 min 0 min 0,0 UV-I 0 W/m 12,9 km/h (3 Bft)
28.01.2014 01:58 3,9 C 2,8 C 92 % 996,2 hPa 0,0 l/m 0 min 0 min 0,0 UV-I 0 W/m 0,0 km/h (0 Bft)
28.01.2014 02:00 3,9 C 2,8 C 91 % 996,3 hPa 0,0 l/m 0 min 0 min 0,0 UV-I 0 W/m 10,3 km/h (2 Bft)
28.01.2014 02:02 3,9 C 2,8 C 91 % 996,3 hPa 0,0 l/m 0 min 0 min 0,0 UV-I 0 W/m 10,3 km/h (2 Bft)
28.01.2014 02:04 3,9 C 2,8 C 91 % 996,3 hPa 0,0 l/m 0 min 0 min 0,0 UV-I 0 W/m 12,9 km/h (3 Bft)
28.01.2014 02:06 3,9 C 2,8 C 91 % 996,2 hPa 0,0 l/m 0 min 0 min 0,0 UV-I 0 W/m 10,3 km/h (2 Bft)
28.01.2014 02:08 3,9 C 2,8 C 91 % 996,2 hPa 0,0 l/m 0 min 0 min 0,0 UV-I 0 W/m 10,3 km/h (2 Bft)
28.01.2014 02:10 3,9 C 2,8 C 91 % 996,2 hPa 0,0 l/m 0 min 0 min 0,0 UV-I 0 W/m 7,7 km/h (2 Bft)
28.01.2014 02:12 3,9 C 2,8 C 91 % 996,2 hPa 0,0 l/m 0 min 0 min 0,0 UV-I 0 W/m 15,4 km/h (3 Bft)
28.01.2014 02:14 3,9 C 2,8 C 91 % 996,2 hPa 0,0 l/m 0 min 0 min 0,0 UV-I 0 W/m 12,9 km/h (3 Bft)
28.01.2014 02:16 3,9 C 2,8 C 91 % 996,2 hPa 0,0 l/m 0 min 0 min 0,0 UV-I 0 W/m 12,9 km/h (3 Bft)
28.01.2014 02:18 3,9 C 2,8 C 91 % 996,2 hPa 0,0 l/m 0 min 0 min 0,0 UV-I 0 W/m 5,1 km/h (1 Bft)
28.01.2014 02:20 3,9 C 2,8 C 91 % 996,3 hPa 0,0 l/m 0 min 0 min 0,0 UV-I 0 W/m 7,7 km/h (2 Bft)
28.01.2014 02:22 3,9 C 2,8 C 91 % 996,2 hPa 0,0 l/m 0 min 0 min 0,0 UV-I 0 W/m 10,3 km/h (2 Bft)
28.01.2014 02:24 3,9 C 2,2 C 91 % 996,2 hPa 0,0 l/m 0 min 0 min 0,0 UV-I 0 W/m 10,3 km/h (2 Bft)
28.01.2014 02:26 3,9 C 2,2 C 91 % 996,2 hPa 0,0 l/m 0 min 0 min 0,0 UV-I 0 W/m 7,7 km/h (2 Bft)
28.01.2014 02:28 3,9 C 2,2 C 91 % 996,2 hPa 0,0 l/m 0 min 0 min 0,0 UV-I 0 W/m 15,4 km/h (3 Bft)
28.01.2014 02:30 3,9 C 2,2 C 91 % 996,2 hPa 0,0 l/m 0 min 0 min 0,0 UV-I 0 W/m 7,7 km/h (2 Bft)
28.01.2014 02:32 3,9 C 2,2 C 91 % 996,2 hPa 0,0 l/m 0 min 0 min 0,0 UV-I 0 W/m 7,7 km/h (2 Bft)
28.01.2014 02:34 3,9 C 2,2 C 91 % 996,2 hPa 0,0 l/m 0 min 0 min 0,0 UV-I 0 W/m 7,7 km/h (2 Bft)
28.01.2014 02:36 3,8 C 2,2 C 91 % 996,2 hPa 0,0 l/m 0 min 0 min 0,0 UV-I 0 W/m 7,7 km/h (2 Bft)
28.01.2014 02:38 3,8 C 1,7 C 91 % 996,2 hPa 0,0 l/m 0 min 0 min 0,0 UV-I 0 W/m 12,9 km/h (3 Bft)
28.01.2014 02:40 3,8 C 1,7 C 91 % 996,1 hPa 0,0 l/m 0 min 0 min 0,0 UV-I 0 W/m 7,7 km/h (2 Bft)
28.01.2014 02:42 3,8 C 1,7 C 91 % 996,2 hPa 0,0 l/m 0 min 0 min 0,0 UV-I 0 W/m 7,7 km/h (2 Bft)
28.01.2014 02:44 3,7 C 1,7 C 91 % 996,1 hPa 0,0 l/m 0 min 0 min 0,0 UV-I 0 W/m 10,3 km/h (2 Bft)
28.01.2014 02:46 3,7 C 1,7 C 90 % 996,2 hPa 0,0 l/m 0 min 0 min 0,0 UV-I 0 W/m 10,3 km/h (2 Bft)
28.01.2014 02:48 3,7 C 1,7 C 90 % 996,2 hPa 0,0 l/m 0 min 0 min 0,0 UV-I 0 W/m 5,1 km/h (1 Bft)
28.01.2014 02:50 3,7 C 1,7 C 91 % 996,2 hPa 0,0 l/m 0 min 0 min 0,0 UV-I 0 W/m 10,3 km/h (2 Bft)
28.01.2014 02:52 3,6 C 1,7 C 91 % 996,3 hPa 0,0 l/m 0 min 0 min 0,0 UV-I 0 W/m 7,7 km/h (2 Bft)
28.01.2014 02:54 3,6 C 1,7 C 91 % 996,3 hPa 0,0 l/m 0 min 0 min 0,0 UV-I 0 W/m 7,7 km/h (2 Bft)
28.01.2014 02:56 3,6 C 1,7 C 91 % 996,3 hPa 0,0 l/m 0 min 0 min 0,0 UV-I 0 W/m 10,3 km/h (2 Bft)
28.01.2014 02:58 3,5 C 1,7 C 91 % 996,3 hPa 0,0 l/m 0 min 0 min 0,0 UV-I 0 W/m 15,4 km/h (3 Bft)
28.01.2014 03:00 3,5 C 1,7 C 91 % 996,4 hPa 0,0 l/m 0 min 0 min 0,0 UV-I 0 W/m 15,4 km/h (3 Bft)
28.01.2014 03:02 3,5 C 1,7 C 91 % 996,4 hPa 0,0 l/m 0 min 0 min 0,0 UV-I 0 W/m 12,9 km/h (3 Bft)
28.01.2014 03:04 3,4 C 1,7 C 90 % 996,4 hPa 0,0 l/m 0 min 0 min 0,0 UV-I 0 W/m 20,6 km/h (4 Bft)
28.01.2014 03:06 3,4 C 1,7 C 90 % 996,4 hPa 0,0 l/m 0 min 0 min 0,0 UV-I 0 W/m 2,6 km/h (1 Bft)
28.01.2014 03:08 3,4 C 1,7 C 90 % 996,4 hPa 0,0 l/m 0 min 0 min 0,0 UV-I 0 W/m 10,3 km/h (2 Bft)
28.01.2014 03:10 3,4 C 1,7 C 91 % 996,4 hPa 0,0 l/m 0 min 0 min 0,0 UV-I 0 W/m 12,9 km/h (3 Bft)
28.01.2014 03:12 3,3 C 1,1 C 91 % 996,4 hPa 0,0 l/m 0 min 0 min 0,0 UV-I 0 W/m 10,3 km/h (2 Bft)
28.01.2014 03:14 3,3 C 1,1 C 91 % 996,4 hPa 0,0 l/m 0 min 0 min 0,0 UV-I 0 W/m 7,7 km/h (2 Bft)
28.01.2014 03:16 3,3 C 1,1 C 91 % 996,4 hPa 0,0 l/m 0 min 0 min 0,0 UV-I 0 W/m 15,4 km/h (3 Bft)
28.01.2014 03:18 3,3 C 1,1 C 91 % 996,4 hPa 0,0 l/m 0 min 0 min 0,0 UV-I 0 W/m 7,7 km/h (2 Bft)
28.01.2014 03:20 3,3 C 1,1 C 91 % 996,4 hPa 0,0 l/m 0 min 0 min 0,0 UV-I 0 W/m 12,9 km/h (3 Bft)
28.01.2014 03:22 3,2 C 1,1 C 91 % 996,3 hPa 0,0 l/m 0 min 0 min 0,0 UV-I 0 W/m 12,9 km/h (3 Bft)
28.01.2014 03:24 3,2 C 1,1 C 91 % 996,4 hPa 0,0 l/m 0 min 0 min 0,0 UV-I 0 W/m 15,4 km/h (3 Bft)
28.01.2014 03:26 3,2 C 1,1 C 91 % 996,4 hPa 0,0 l/m 0 min 0 min 0,0 UV-I 0 W/m 10,3 km/h (2 Bft)
28.01.2014 03:28 3,2 C 1,1 C 91 % 996,4 hPa 0,0 l/m 0 min 0 min 0,0 UV-I 0 W/m 10,3 km/h (2 Bft)
28.01.2014 03:30 3,1 C 1,1 C 91 % 996,4 hPa 0,0 l/m 0 min 0 min 0,0 UV-I 0 W/m 7,7 km/h (2 Bft)
28.01.2014 03:32 3,1 C 1,1 C 91 % 996,3 hPa 0,0 l/m 0 min 0 min 0,0 UV-I 0 W/m 10,3 km/h (2 Bft)
28.01.2014 03:34 3,1 C 1,1 C 91 % 996,4 hPa 0,0 l/m 0 min 0 min 0,0 UV-I 0 W/m 7,7 km/h (2 Bft)
28.01.2014 03:36 3,1 C 1,1 C 91 % 996,4 hPa 0,0 l/m 0 min 0 min 0,0 UV-I 0 W/m 7,7 km/h (2 Bft)
28.01.2014 03:38 3,1 C 1,1 C 91 % 996,4 hPa 0,0 l/m 0 min 0 min 0,0 UV-I 0 W/m 12,9 km/h (3 Bft)
28.01.2014 03:40 3,0 C 1,1 C 91 % 996,4 hPa 0,0 l/m 0 min 0 min 0,0 UV-I 0 W/m 10,3 km/h (2 Bft)
28.01.2014 03:42 3,0 C 1,1 C 91 % 996,3 hPa 0,0 l/m 0 min 0 min 0,0 UV-I 0 W/m 7,7 km/h (2 Bft)
28.01.2014 03:44 3,0 C 1,1 C 91 % 996,4 hPa 0,0 l/m 0 min 0 min 0,0 UV-I 0 W/m 10,3 km/h (2 Bft)
28.01.2014 03:46 2,9 C 1,1 C 91 % 996,4 hPa 0,0 l/m 0 min 0 min 0,0 UV-I 0 W/m 20,6 km/h (4 Bft)
28.01.2014 03:48 2,9 C 1,1 C 91 % 996,4 hPa 0,0 l/m 0 min 0 min 0,0 UV-I 0 W/m 12,9 km/h (3 Bft)
28.01.2014 03:50 2,9 C 1,1 C 91 % 996,4 hPa 0,0 l/m 0 min 0 min 0,0 UV-I 0 W/m 10,3 km/h (2 Bft)
28.01.2014 03:52 2,9 C 1,1 C 91 % 996,5 hPa 0,0 l/m 0 min 0 min 0,0 UV-I 0 W/m 12,9 km/h (3 Bft)
28.01.2014 03:54 2,9 C 1,1 C 91 % 996,5 hPa 0,0 l/m 0 min 0 min 0,0 UV-I 0 W/m 10,3 km/h (2 Bft)
28.01.2014 03:56 2,9 C 1,1 C 91 % 996,5 hPa 0,0 l/m 0 min 0 min 0,0 UV-I 0 W/m 10,3 km/h (2 Bft)
28.01.2014 03:58 2,9 C 1,1 C 91 % 996,4 hPa 0,0 l/m 0 min 0 min 0,0 UV-I 0 W/m 7,7 km/h (2 Bft)
28.01.2014 04:00 2,9 C 1,1 C 91 % 996,3 hPa 0,0 l/m 0 min 0 min 0,0 UV-I 0 W/m 10,3 km/h (2 Bft)
28.01.2014 04:02 2,8 C 1,1 C 91 % 996,3 hPa 0,0 l/m 0 min 0 min 0,0 UV-I 0 W/m 0,0 km/h (0 Bft)
28.01.2014 04:04 2,8 C 1,1 C 91 % 996,3 hPa 0,0 l/m 0 min 0 min 0,0 UV-I 0 W/m 12,9 km/h (3 Bft)
28.01.2014 04:06 2,8 C 1,1 C 91 % 996,4 hPa 0,0 l/m 0 min 0 min 0,0 UV-I 0 W/m 10,3 km/h (2 Bft)
28.01.2014 04:08 2,8 C 1,1 C 91 % 996,3 hPa 0,0 l/m 0 min 0 min 0,0 UV-I 0 W/m 7,7 km/h (2 Bft)
28.01.2014 04:10 2,8 C 1,1 C 91 % 996,3 hPa 0,0 l/m 0 min 0 min 0,0 UV-I 0 W/m 12,9 km/h (3 Bft)
28.01.2014 04:12 2,8 C 1,1 C 91 % 996,3 hPa 0,0 l/m 0 min 0 min 0,0 UV-I 0 W/m 7,7 km/h (2 Bft)
28.01.2014 04:14 2,8 C 1,1 C 91 % 996,4 hPa 0,0 l/m 0 min 0 min 0,0 UV-I 0 W/m 7,7 km/h (2 Bft)
28.01.2014 04:16 2,7 C 1,1 C 91 % 996,4 hPa 0,0 l/m 0 min 0 min 0,0 UV-I 0 W/m 10,3 km/h (2 Bft)
28.01.2014 04:18 2,7 C 1,1 C 91 % 996,3 hPa 0,0 l/m 0 min 0 min 0,0 UV-I 0 W/m 12,9 km/h (3 Bft)
28.01.2014 04:20 2,7 C 1,1 C 91 % 996,4 hPa 0,0 l/m 0 min 0 min 0,0 UV-I 0 W/m 20,6 km/h (4 Bft)
28.01.2014 04:22 2,7 C 1,1 C 91 % 996,4 hPa 0,0 l/m 0 min 0 min 0,0 UV-I 0 W/m 10,3 km/h (2 Bft)
28.01.2014 04:24 2,7 C 1,1 C 91 % 996,4 hPa 0,0 l/m 0 min 0 min 0,0 UV-I 0 W/m 10,3 km/h (2 Bft)
28.01.2014 04:26 2,7 C 1,1 C 91 % 996,4 hPa 0,0 l/m 0 min 0 min 0,0 UV-I 0 W/m 7,7 km/h (2 Bft)
28.01.2014 04:28 2,7 C 1,1 C 91 % 996,4 hPa 0,0 l/m 0 min 0 min 0,0 UV-I 0 W/m 10,3 km/h (2 Bft)
28.01.2014 04:30 2,7 C 1,1 C 91 % 996,4 hPa 0,0 l/m 0 min 0 min 0,0 UV-I 0 W/m 10,3 km/h (2 Bft)
28.01.2014 04:32 2,7 C 0,6 C 92 % 996,4 hPa 0,0 l/m 0 min 0 min 0,0 UV-I 0 W/m 0,0 km/h (0 Bft)
28.01.2014 04:34 2,6 C 1,1 C 92 % 996,4 hPa 0,0 l/m 0 min 0 min 0,0 UV-I 0 W/m 7,7 km/h (2 Bft)
28.01.2014 04:36 2,6 C 0,6 C 92 % 996,5 hPa 0,0 l/m 0 min 0 min 0,0 UV-I 0 W/m 10,3 km/h (2 Bft)
28.01.2014 04:38 2,6 C 0,6 C 92 % 996,4 hPa 0,0 l/m 0 min 0 min 0,0 UV-I 0 W/m 12,9 km/h (3 Bft)
28.01.2014 04:40 2,6 C 0,6 C 91 % 996,4 hPa 0,0 l/m 0 min 0 min 0,0 UV-I 0 W/m 15,4 km/h (3 Bft)
28.01.2014 04:42 2,6 C 1,1 C 91 % 996,4 hPa 0,0 l/m 0 min 0 min 0,0 UV-I 0 W/m 12,9 km/h (3 Bft)
28.01.2014 04:44 2,6 C 1,1 C 91 % 996,3 hPa 0,0 l/m 0 min 0 min 0,0 UV-I 0 W/m 12,9 km/h (3 Bft)
28.01.2014 04:46 2,6 C 1,1 C 91 % 996,3 hPa 0,0 l/m 0 min 0 min 0,0 UV-I 0 W/m 15,4 km/h (3 Bft)
28.01.2014 04:48 2,6 C 1,1 C 91 % 996,4 hPa 0,0 l/m 0 min 0 min 0,0 UV-I 0 W/m 18,0 km/h (3 Bft)
28.01.2014 04:50 2,6 C 1,1 C 91 % 996,4 hPa 0,0 l/m 0 min 0 min 0,0 UV-I 0 W/m 15,4 km/h (3 Bft)
28.01.2014 04:52 2,6 C 0,6 C 91 % 996,3 hPa 0,0 l/m 0 min 0 min 0,0 UV-I 0 W/m 7,7 km/h (2 Bft)
28.01.2014 04:54 2,6 C 0,6 C 91 % 996,4 hPa 0,0 l/m 0 min 0 min 0,0 UV-I 0 W/m 7,7 km/h (2 Bft)
28.01.2014 04:56 2,6 C 0,6 C 91 % 996,4 hPa 0,0 l/m 0 min 0 min 0,0 UV-I 0 W/m 10,3 km/h (2 Bft)
28.01.2014 04:58 2,6 C 0,6 C 91 % 996,4 hPa 0,0 l/m 0 min 0 min 0,0 UV-I 0 W/m 10,3 km/h (2 Bft)
28.01.2014 05:00 2,5 C 0,6 C 91 % 996,3 hPa 0,0 l/m 0 min 0 min 0,0 UV-I 0 W/m 12,9 km/h (3 Bft)
28.01.2014 05:02 2,5 C 0,6 C 91 % 996,3 hPa 0,0 l/m 0 min 0 min 0,0 UV-I 0 W/m 15,4 km/h (3 Bft)
28.01.2014 05:04 2,5 C 0,6 C 91 % 996,4 hPa 0,0 l/m 0 min 0 min 0,0 UV-I 0 W/m 18,0 km/h (3 Bft)
28.01.2014 05:06 2,5 C 0,6 C 91 % 996,4 hPa 0,0 l/m 0 min 0 min 0,0 UV-I 0 W/m 7,7 km/h (2 Bft)
28.01.2014 05:08 2,4 C 0,6 C 91 % 996,3 hPa 0,0 l/m 0 min 0 min 0,0 UV-I 0 W/m 15,4 km/h (3 Bft)
28.01.2014 05:10 2,4 C 0,6 C 91 % 996,3 hPa 0,0 l/m 0 min 0 min 0,0 UV-I 0 W/m 7,7 km/h (2 Bft)
28.01.2014 05:12 2,4 C 0,6 C 91 % 996,3 hPa 0,0 l/m 0 min 0 min 0,0 UV-I 0 W/m 15,4 km/h (3 Bft)
28.01.2014 05:14 2,4 C 0,6 C 91 % 996,4 hPa 0,0 l/m 0 min 0 min 0,0 UV-I 0 W/m 18,0 km/h (3 Bft)
28.01.2014 05:16 2,4 C 0,6 C 91 % 996,4 hPa 0,0 l/m 0 min 0 min 0,0 UV-I 0 W/m 7,7 km/h (2 Bft)
28.01.2014 05:18 2,4 C 0,6 C 91 % 996,4 hPa 0,0 l/m 0 min 0 min 0,0 UV-I 0 W/m 12,9 km/h (3 Bft)
28.01.2014 05:20 2,4 C 0,6 C 91 % 996,4 hPa 0,0 l/m 0 min 0 min 0,0 UV-I 0 W/m 0,0 km/h (0 Bft)
28.01.2014 05:22 2,4 C 0,6 C 91 % 996,4 hPa 0,0 l/m 0 min 0 min 0,0 UV-I 0 W/m 15,4 km/h (3 Bft)
28.01.2014 05:24 2,4 C 0,6 C 91 % 996,4 hPa 0,0 l/m 0 min 0 min 0,0 UV-I 0 W/m 18,0 km/h (3 Bft)
28.01.2014 05:26 2,3 C 0,6 C 91 % 996,5 hPa 0,0 l/m 0 min 0 min 0,0 UV-I 0 W/m 10,3 km/h (2 Bft)
28.01.2014 05:28 2,3 C 0,6 C 91 % 996,5 hPa 0,0 l/m 0 min 0 min 0,0 UV-I 0 W/m 7,7 km/h (2 Bft)
28.01.2014 05:30 2,3 C 0,6 C 91 % 996,5 hPa 0,0 l/m 0 min 0 min 0,0 UV-I 0 W/m 7,7 km/h (2 Bft)
28.01.2014 05:32 2,3 C 0,6 C 91 % 996,6 hPa 0,0 l/m 0 min 0 min 0,0 UV-I 0 W/m 18,0 km/h (3 Bft)
28.01.2014 05:34 2,3 C 0,6 C 91 % 996,5 hPa 0,0 l/m 0 min 0 min 0,0 UV-I 0 W/m 5,1 km/h (1 Bft)
28.01.2014 05:36 2,3 C 0,6 C 91 % 996,5 hPa 0,0 l/m 0 min 0 min 0,0 UV-I 0 W/m 10,3 km/h (2 Bft)
28.01.2014 05:38 2,3 C 0,6 C 91 % 996,4 hPa 0,0 l/m 0 min 0 min 0,0 UV-I 0 W/m 7,7 km/h (2 Bft)
28.01.2014 05:40 2,3 C 0,6 C 91 % 996,5 hPa 0,0 l/m 0 min 0 min 0,0 UV-I 0 W/m 15,4 km/h (3 Bft)
28.01.2014 05:42 2,3 C 0,6 C 91 % 996,6 hPa 0,0 l/m 0 min 0 min 0,0 UV-I 0 W/m 7,7 km/h (2 Bft)
28.01.2014 05:44 2,2 C 0,6 C 91 % 996,6 hPa 0,0 l/m 0 min 0 min 0,0 UV-I 0 W/m 12,9 km/h (3 Bft)
28.01.2014 05:46 2,3 C 0,6 C 91 % 996,7 hPa 0,0 l/m 0 min 0 min 0,0 UV-I 0 W/m 10,3 km/h (2 Bft)
28.01.2014 05:48 2,2 C 0,6 C 91 % 996,7 hPa 0,0 l/m 0 min 0 min 0,0 UV-I 0 W/m 10,3 km/h (2 Bft)
28.01.2014 05:50 2,2 C 0,6 C 91 % 996,7 hPa 0,0 l/m 0 min 0 min 0,0 UV-I 0 W/m 10,3 km/h (2 Bft)
28.01.2014 05:52 2,2 C 0,6 C 91 % 996,8 hPa 0,0 l/m 0 min 0 min 0,0 UV-I 0 W/m 10,3 km/h (2 Bft)
28.01.2014 05:54 2,2 C 0,6 C 91 % 996,7 hPa 0,0 l/m 0 min 0 min 0,0 UV-I 0 W/m 20,6 km/h (4 Bft)
28.01.2014 05:56 2,2 C 0,6 C 91 % 996,8 hPa 0,0 l/m 0 min 0 min 0,0 UV-I 0 W/m 18,0 km/h (3 Bft)
28.01.2014 05:58 2,2 C 0,6 C 91 % 996,9 hPa 0,0 l/m 0 min 0 min 0,0 UV-I 0 W/m 12,9 km/h (3 Bft)
28.01.2014 06:00 2,2 C 0,6 C 91 % 996,8 hPa 0,0 l/m 0 min 0 min 0,0 UV-I 0 W/m 15,4 km/h (3 Bft)
28.01.2014 06:02 2,2 C 0,6 C 91 % 996,8 hPa 0,0 l/m 0 min 0 min 0,0 UV-I 0 W/m 10,3 km/h (2 Bft)
28.01.2014 06:04 2,2 C 0,6 C 91 % 996,8 hPa 0,0 l/m 0 min 0 min 0,0 UV-I 0 W/m 12,9 km/h (3 Bft)
28.01.2014 06:06 2,2 C 0,6 C 91 % 996,7 hPa 0,0 l/m 0 min 0 min 0,0 UV-I 0 W/m 15,4 km/h (3 Bft)
28.01.2014 06:08 2,2 C 0,6 C 91 % 996,7 hPa 0,0 l/m 0 min 0 min 0,0 UV-I 0 W/m 15,4 km/h (3 Bft)
28.01.2014 06:10 2,2 C 0,6 C 91 % 996,8 hPa 0,0 l/m 0 min 0 min 0,0 UV-I 0 W/m 10,3 km/h (2 Bft)
28.01.2014 06:12 2,3 C 0,6 C 91 % 996,7 hPa 0,0 l/m 0 min 0 min 0,0 UV-I 0 W/m 12,9 km/h (3 Bft)
28.01.2014 06:14 2,2 C 0,6 C 91 % 996,8 hPa 0,0 l/m 0 min 0 min 0,0 UV-I 0 W/m 15,4 km/h (3 Bft)
28.01.2014 06:16 2,3 C 0,6 C 91 % 996,8 hPa 0,0 l/m 0 min 0 min 0,0 UV-I 0 W/m 25,7 km/h (4 Bft)
28.01.2014 06:18 2,3 C 0,6 C 91 % 996,9 hPa 0,0 l/m 0 min 0 min 0,0 UV-I 0 W/m 5,1 km/h (1 Bft)
28.01.2014 06:20 2,3 C 0,6 C 91 % 996,8 hPa 0,0 l/m 0 min 0 min 0,0 UV-I 0 W/m 0,0 km/h (0 Bft)
28.01.2014 06:22 2,3 C 0,6 C 91 % 996,8 hPa 0,0 l/m 0 min 0 min 0,0 UV-I 0 W/m 7,7 km/h (2 Bft)
28.01.2014 06:24 2,3 C 0,6 C 91 % 996,9 hPa 0,0 l/m 0 min 0 min 0,0 UV-I 0 W/m 10,3 km/h (2 Bft)
28.01.2014 06:26 2,3 C 0,6 C 91 % 996,9 hPa 0,0 l/m 0 min 0 min 0,0 UV-I 0 W/m 10,3 km/h (2 Bft)
28.01.2014 06:28 2,3 C 0,6 C 90 % 996,8 hPa 0,0 l/m 0 min 0 min 0,0 UV-I 0 W/m 15,4 km/h (3 Bft)
28.01.2014 06:30 2,3 C 0,6 C 90 % 996,9 hPa 0,0 l/m 0 min 0 min 0,0 UV-I 0 W/m 12,9 km/h (3 Bft)
28.01.2014 06:32 2,3 C 0,6 C 90 % 996,9 hPa 0,0 l/m 0 min 0 min 0,0 UV-I 0 W/m 12,9 km/h (3 Bft)
28.01.2014 06:34 2,3 C 0,6 C 90 % 996,9 hPa 0,0 l/m 0 min 0 min 0,0 UV-I 0 W/m 12,9 km/h (3 Bft)
28.01.2014 06:36 2,3 C 0,6 C 90 % 996,9 hPa 0,0 l/m 0 min 0 min 0,0 UV-I 0 W/m 15,4 km/h (3 Bft)
28.01.2014 06:38 2,3 C 0,6 C 90 % 996,8 hPa 0,0 l/m 0 min 0 min 0,0 UV-I 0 W/m 12,9 km/h (3 Bft)
28.01.2014 06:40 2,3 C 0,6 C 90 % 996,7 hPa 0,0 l/m 0 min 0 min 0,0 UV-I 0 W/m 10,3 km/h (2 Bft)
28.01.2014 06:42 2,3 C 0,6 C 90 % 996,8 hPa 0,0 l/m 0 min 0 min 0,0 UV-I 0 W/m 15,4 km/h (3 Bft)
28.01.2014 06:44 2,3 C 0,6 C 90 % 996,9 hPa 0,0 l/m 0 min 0 min 0,0 UV-I 0 W/m 10,3 km/h (2 Bft)
28.01.2014 06:46 2,3 C 0,6 C 90 % 996,9 hPa 0,0 l/m 0 min 0 min 0,0 UV-I 0 W/m 15,4 km/h (3 Bft)
28.01.2014 06:48 2,3 C 0,6 C 90 % 996,9 hPa 0,0 l/m 0 min 0 min 0,0 UV-I 0 W/m 12,9 km/h (3 Bft)
28.01.2014 06:50 2,2 C 0,6 C 90 % 996,9 hPa 0,0 l/m 0 min 0 min 0,0 UV-I 0 W/m 5,1 km/h (1 Bft)
28.01.2014 06:52 2,2 C 0,6 C 90 % 996,9 hPa 0,0 l/m 0 min 0 min 0,0 UV-I 0 W/m 12,9 km/h (3 Bft)
28.01.2014 06:54 2,2 C 0,6 C 90 % 996,9 hPa 0,0 l/m 0 min 0 min 0,0 UV-I 0 W/m 10,3 km/h (2 Bft)
28.01.2014 06:56 2,2 C 0,6 C 90 % 996,8 hPa 0,0 l/m 0 min 0 min 0,0 UV-I 0 W/m 20,6 km/h (4 Bft)
28.01.2014 06:58 2,2 C 0,6 C 90 % 996,9 hPa 0,0 l/m 0 min 0 min 0,0 UV-I 0 W/m 7,7 km/h (2 Bft)
28.01.2014 07:00 2,2 C 0,6 C 90 % 996,9 hPa 0,0 l/m 0 min 0 min 0,0 UV-I 0 W/m 10,3 km/h (2 Bft)
28.01.2014 07:02 2,2 C 0,6 C 90 % 996,9 hPa 0,0 l/m 0 min 0 min 0,0 UV-I 0 W/m 10,3 km/h (2 Bft)
28.01.2014 07:04 2,2 C 0,6 C 90 % 996,9 hPa 0,0 l/m 0 min 0 min 0,0 UV-I 0 W/m 12,9 km/h (3 Bft)
28.01.2014 07:06 2,2 C 0,6 C 90 % 996,9 hPa 0,0 l/m 0 min 0 min 0,0 UV-I 0 W/m 10,3 km/h (2 Bft)
28.01.2014 07:08 2,2 C 0,6 C 90 % 996,9 hPa 0,0 l/m 0 min 0 min 0,0 UV-I 0 W/m 10,3 km/h (2 Bft)
28.01.2014 07:10 2,2 C 0,6 C 95 % 996,9 hPa 0,0 l/m 0 min 0 min 0,0 UV-I 0 W/m 15,4 km/h (3 Bft)
28.01.2014 07:12 2,2 C 0,6 C 90 % 996,8 hPa 0,0 l/m 0 min 0 min 0,0 UV-I 0 W/m 7,7 km/h (2 Bft)
28.01.2014 07:14 2,1 C 0,6 C 90 % 996,9 hPa 0,0 l/m 0 min 0 min 0,0 UV-I 0 W/m 7,7 km/h (2 Bft)
28.01.2014 07:16 2,1 C 0,6 C 90 % 997,0 hPa 0,0 l/m 0 min 0 min 0,0 UV-I 0 W/m 7,7 km/h (2 Bft)
28.01.2014 07:18 2,1 C 0,6 C 90 % 997,0 hPa 0,0 l/m 0 min 0 min 0,0 UV-I 0 W/m 20,6 km/h (4 Bft)
28.01.2014 07:20 2,1 C 0,6 C 90 % 997,0 hPa 0,0 l/m 0 min 0 min 0,0 UV-I 0 W/m 18,0 km/h (3 Bft)
28.01.2014 07:22 2,1 C 0,6 C 90 % 997,0 hPa 0,0 l/m 0 min 0 min 0,0 UV-I 0 W/m 10,3 km/h (2 Bft)
28.01.2014 07:24 2,1 C 0,6 C 90 % 996,9 hPa 0,0 l/m 0 min 0 min 0,0 UV-I 0 W/m 12,9 km/h (3 Bft)
28.01.2014 07:26 2,1 C 0,6 C 90 % 996,9 hPa 0,0 l/m 0 min 0 min 0,0 UV-I 0 W/m 18,0 km/h (3 Bft)
28.01.2014 07:28 2,1 C 0,6 C 90 % 997,2 hPa 0,0 l/m 0 min 0 min 0,0 UV-I 0 W/m 18,0 km/h (3 Bft)
28.01.2014 07:30 2,2 C 0,6 C 90 % 997,2 hPa 0,0 l/m 0 min 0 min 0,0 UV-I 0 W/m 15,4 km/h (3 Bft)
28.01.2014 07:32 2,2 C 0,6 C 90 % 997,2 hPa 0,0 l/m 0 min 0 min 0,0 UV-I 0 W/m 12,9 km/h (3 Bft)
28.01.2014 07:34 2,2 C 0,6 C 90 % 997,2 hPa 0,0 l/m 0 min 0 min 0,0 UV-I 0 W/m 12,9 km/h (3 Bft)
28.01.2014 07:36 2,2 C 0,6 C 90 % 997,2 hPa 0,0 l/m 0 min 0 min 0,0 UV-I 0 W/m 12,9 km/h (3 Bft)
28.01.2014 07:38 2,2 C 0,6 C 95 % 997,2 hPa 0,0 l/m 0 min 0 min 0,0 UV-I 0 W/m 18,0 km/h (3 Bft)
28.01.2014 07:40 2,2 C 0,6 C 95 % 997,2 hPa 0,0 l/m 0 min 0 min 0,0 UV-I 0 W/m 12,9 km/h (3 Bft)
28.01.2014 07:42 2,2 C 0,6 C 90 % 997,2 hPa 0,0 l/m 0 min 0 min 0,0 UV-I 0 W/m 20,6 km/h (4 Bft)
28.01.2014 07:44 2,2 C 0,6 C 90 % 997,2 hPa 0,0 l/m 0 min 0 min 0,0 UV-I 0 W/m 12,9 km/h (3 Bft)
28.01.2014 07:46 2,2 C 0,6 C 90 % 997,1 hPa 0,0 l/m 0 min 0 min 0,0 UV-I 0 W/m 12,9 km/h (3 Bft)
28.01.2014 07:48 2,2 C 0,6 C 90 % 997,1 hPa 0,0 l/m 0 min 0 min 0,0 UV-I 0 W/m 18,0 km/h (3 Bft)
28.01.2014 07:50 2,2 C 0,6 C 90 % 997,0 hPa 0,0 l/m 0 min 0 min 0,0 UV-I 0 W/m 25,7 km/h (4 Bft)
28.01.2014 07:52 2,2 C 0,6 C 90 % 997,1 hPa 0,0 l/m 0 min 0 min 0,0 UV-I 0 W/m 12,9 km/h (3 Bft)
28.01.2014 07:54 2,2 C 0,6 C 90 % 997,2 hPa 0,0 l/m 0 min 0 min 0,0 UV-I 0 W/m 23,2 km/h (4 Bft)
28.01.2014 07:56 2,2 C 0,6 C 89 % 997,1 hPa 0,0 l/m 0 min 0 min 0,0 UV-I 0 W/m 20,6 km/h (4 Bft)
28.01.2014 07:58 2,2 C 0,6 C 89 % 997,1 hPa 0,0 l/m 0 min 0 min 0,0 UV-I 0 W/m 15,4 km/h (3 Bft)
28.01.2014 08:00 2,3 C 0,6 C 89 % 997,1 hPa 0,0 l/m 0 min 0 min 0,0 UV-I 0 W/m 20,6 km/h (4 Bft)
28.01.2014 08:02 2,3 C 1,1 C 89 % 997,1 hPa 0,0 l/m 0 min 0 min 0,0 UV-I 0 W/m 20,6 km/h (4 Bft)
28.01.2014 08:04 2,3 C 1,1 C 89 % 997,1 hPa 0,0 l/m 0 min 0 min 0,0 UV-I 0 W/m 15,4 km/h (3 Bft)
28.01.2014 08:06 2,3 C 1,1 C 89 % 997,1 hPa 0,0 l/m 0 min 0 min 0,0 UV-I 0 W/m 18,0 km/h (3 Bft)
28.01.2014 08:08 2,3 C 1,1 C 89 % 997,1 hPa 0,0 l/m 0 min 0 min 0,0 UV-I 0 W/m 20,6 km/h (4 Bft)
28.01.2014 08:10 2,4 C 1,1 C 89 % 997,1 hPa 0,0 l/m 0 min 0 min 0,0 UV-I 0 W/m 20,6 km/h (4 Bft)
28.01.2014 08:12 2,4 C 1,1 C 89 % 997,2 hPa 0,0 l/m 0 min 0 min 0,0 UV-I 0 W/m 20,6 km/h (4 Bft)
28.01.2014 08:14 2,5 C 1,1 C 89 % 997,2 hPa 0,0 l/m 0 min 0 min 0,0 UV-I 0 W/m 12,9 km/h (3 Bft)
28.01.2014 08:16 2,5 C 1,1 C 89 % 997,3 hPa 0,0 l/m 0 min 0 min 0,0 UV-I 0 W/m 10,3 km/h (2 Bft)
28.01.2014 08:18 2,6 C 1,1 C 89 % 997,3 hPa 0,0 l/m 0 min 0 min 0,0 UV-I 0 W/m 12,9 km/h (3 Bft)
28.01.2014 08:20 2,6 C 1,7 C 89 % 997,2 hPa 0,0 l/m 0 min 0 min 0,0 UV-I 0 W/m 23,2 km/h (4 Bft)
28.01.2014 08:22 2,6 C 1,7 C 88 % 997,3 hPa 0,0 l/m 0 min 0 min 0,0 UV-I 5 W/m 23,2 km/h (4 Bft)
28.01.2014 08:24 2,7 C 1,7 C 88 % 997,2 hPa 0,0 l/m 0 min 0 min 0,0 UV-I 5 W/m 20,6 km/h (4 Bft)
28.01.2014 08:26 2,7 C 1,7 C 88 % 997,1 hPa 0,0 l/m 0 min 0 min 0,0 UV-I 5 W/m 12,9 km/h (3 Bft)
28.01.2014 08:28 2,7 C 1,7 C 88 % 997,1 hPa 0,0 l/m 0 min 0 min 0,0 UV-I 5 W/m 25,7 km/h (4 Bft)
28.01.2014 08:30 2,8 C 1,7 C 88 % 997,1 hPa 0,0 l/m 0 min 0 min 0,0 UV-I 7 W/m 18,0 km/h (3 Bft)
28.01.2014 08:32 2,8 C 1,1 C 88 % 997,1 hPa 0,0 l/m 0 min 0 min 0,0 UV-I 7 W/m 12,9 km/h (3 Bft)
28.01.2014 08:34 2,8 C 1,1 C 87 % 997,1 hPa 0,0 l/m 0 min 0 min 0,0 UV-I 7 W/m 15,4 km/h (3 Bft)
28.01.2014 08:36 2,9 C 1,7 C 87 % 997,1 hPa 0,0 l/m 0 min 0 min 0,0 UV-I 9 W/m 20,6 km/h (4 Bft)
28.01.2014 08:38 2,9 C 1,1 C 87 % 997,1 hPa 0,0 l/m 0 min 0 min 0,0 UV-I 9 W/m 18,0 km/h (3 Bft)
28.01.2014 08:40 2,9 C 1,1 C 87 % 997,2 hPa 0,0 l/m 0 min 0 min 0,0 UV-I 11 W/m 10,3 km/h (2 Bft)
28.01.2014 08:42 2,9 C 1,1 C 86 % 997,2 hPa 0,0 l/m 0 min 0 min 0,0 UV-I 12 W/m 10,3 km/h (2 Bft)
28.01.2014 08:44 2,9 C 1,1 C 86 % 997,2 hPa 0,0 l/m 0 min 0 min 0,0 UV-I 12 W/m 20,6 km/h (4 Bft)
28.01.2014 08:46 2,9 C 1,1 C 86 % 997,2 hPa 0,0 l/m 0 min 0 min 0,0 UV-I 12 W/m 15,4 km/h (3 Bft)
28.01.2014 08:48 2,9 C 1,1 C 86 % 997,2 hPa 0,0 l/m 0 min 0 min 0,0 UV-I 12 W/m 20,6 km/h (4 Bft)
28.01.2014 08:50 2,9 C 1,1 C 86 % 997,2 hPa 0,0 l/m 0 min 0 min 0,0 UV-I 14 W/m 25,7 km/h (4 Bft)
28.01.2014 08:52 3,0 C 1,7 C 86 % 997,1 hPa 0,0 l/m 0 min 0 min 0,0 UV-I 16 W/m 18,0 km/h (3 Bft)
28.01.2014 08:54 3,0 C 1,7 C 86 % 997,2 hPa 0,0 l/m 0 min 0 min 0,0 UV-I 16 W/m 12,9 km/h (3 Bft)
28.01.2014 08:56 3,0 C 1,1 C 86 % 997,2 hPa 0,0 l/m 0 min 0 min 0,0 UV-I 16 W/m 12,9 km/h (3 Bft)
28.01.2014 08:58 3,0 C 1,1 C 86 % 997,2 hPa 0,0 l/m 0 min 0 min 0,0 UV-I 18 W/m 20,6 km/h (4 Bft)
28.01.2014 09:00 3,1 C 1,1 C 85 % 997,2 hPa 0,0 l/m 0 min 0 min 0,0 UV-I 18 W/m 12,9 km/h (3 Bft)
28.01.2014 09:02 3,1 C 1,1 C 85 % 997,3 hPa 0,0 l/m 0 min 0 min 0,0 UV-I 19 W/m 15,4 km/h (3 Bft)
28.01.2014 09:04 3,1 C 1,1 C 85 % 997,3 hPa 0,0 l/m 0 min 0 min 0,0 UV-I 23 W/m 18,0 km/h (3 Bft)
28.01.2014 09:06 3,1 C 1,1 C 85 % 997,3 hPa 0,0 l/m 0 min 0 min 0,0 UV-I 23 W/m 10,3 km/h (2 Bft)
28.01.2014 09:08 3,1 C 1,7 C 85 % 997,2 hPa 0,0 l/m 0 min 0 min 0,0 UV-I 23 W/m 7,7 km/h (2 Bft)
28.01.2014 09:10 3,1 C 1,7 C 85 % 997,3 hPa 0,0 l/m 0 min 0 min 0,0 UV-I 23 W/m 12,9 km/h (3 Bft)
28.01.2014 09:12 3,1 C 1,7 C 85 % 997,2 hPa 0,0 l/m 0 min 0 min 0,0 UV-I 25 W/m 10,3 km/h (2 Bft)
28.01.2014 09:14 3,1 C 1,7 C 85 % 997,2 hPa 0,0 l/m 0 min 0 min 0,0 UV-I 25 W/m 7,7 km/h (2 Bft)
28.01.2014 09:16 3,1 C 1,7 C 85 % 997,3 hPa 0,0 l/m 0 min 0 min 0,0 UV-I 25 W/m 7,7 km/h (2 Bft)
28.01.2014 09:18 3,1 C 1,7 C 85 % 997,2 hPa 0,0 l/m 0 min 0 min 0,0 UV-I 25 W/m 10,3 km/h (2 Bft)
28.01.2014 09:20 3,1 C 1,7 C 85 % 997,2 hPa 0,0 l/m 0 min 0 min 0,0 UV-I 26 W/m 2,6 km/h (1 Bft)
28.01.2014 09:22 3,1 C 1,7 C 85 % 997,3 hPa 0,0 l/m 0 min 0 min 0,0 UV-I 26 W/m 10,3 km/h (2 Bft)
28.01.2014 09:24 3,1 C 1,7 C 85 % 997,3 hPa 0,0 l/m 0 min 0 min 0,0 UV-I 26 W/m 5,1 km/h (1 Bft)
28.01.2014 09:26 3,2 C 1,7 C 85 % 997,3 hPa 0,0 l/m 0 min 0 min 0,0 UV-I 26 W/m 7,7 km/h (2 Bft)
28.01.2014 09:28 3,2 C 1,7 C 85 % 997,3 hPa 0,0 l/m 0 min 0 min 0,0 UV-I 28 W/m 15,4 km/h (3 Bft)
28.01.2014 09:30 3,2 C 1,7 C 85 % 997,2 hPa 0,0 l/m 0 min 0 min 0,0 UV-I 28 W/m 7,7 km/h (2 Bft)
28.01.2014 09:32 3,2 C 1,7 C 85 % 997,2 hPa 0,0 l/m 0 min 0 min 0,0 UV-I 28 W/m 18,0 km/h (3 Bft)
28.01.2014 09:34 3,2 C 1,7 C 85 % 997,3 hPa 0,0 l/m 0 min 0 min 0,0 UV-I 28 W/m 15,4 km/h (3 Bft)
28.01.2014 09:36 3,2 C 1,7 C 85 % 997,2 hPa 0,0 l/m 0 min 0 min 0,0 UV-I 30 W/m 12,9 km/h (3 Bft)
28.01.2014 09:38 3,2 C 1,7 C 86 % 997,3 hPa 0,0 l/m 0 min 0 min 0,0 UV-I 60 W/m 18,0 km/h (3 Bft)
28.01.2014 09:40 3,3 C 1,7 C 85 % 997,3 hPa 0,0 l/m 0 min 0 min 0,0 UV-I 86 W/m 15,4 km/h (3 Bft)
28.01.2014 09:42 3,3 C 1,7 C 85 % 997,3 hPa 0,0 l/m 0 min 0 min 0,0 UV-I 93 W/m 20,6 km/h (4 Bft)
28.01.2014 09:44 3,3 C 2,2 C 85 % 997,3 hPa 0,0 l/m 2 min 0 min 0,0 UV-I 97 W/m 23,2 km/h (4 Bft)
28.01.2014 09:46 3,4 C 2,2 C 85 % 997,4 hPa 0,0 l/m 2 min 0 min 0,0 UV-I 102 W/m 20,6 km/h (4 Bft)
28.01.2014 09:48 3,4 C 2,2 C 85 % 997,3 hPa 0,0 l/m 2 min 0 min 0,0 UV-I 105 W/m 18,0 km/h (3 Bft)
28.01.2014 09:50 3,4 C 2,2 C 85 % 997,4 hPa 0,0 l/m 2 min 0 min 0,0 UV-I 111 W/m 23,2 km/h (4 Bft)
28.01.2014 09:52 3,5 C 2,2 C 85 % 997,4 hPa 0,0 l/m 2 min 0 min 0,0 UV-I 111 W/m 25,7 km/h (4 Bft)
28.01.2014 09:54 3,6 C 2,2 C 85 % 997,3 hPa 0,0 l/m 2 min 0 min 0,0 UV-I 116 W/m 15,4 km/h (3 Bft)
28.01.2014 09:56 3,6 C 2,2 C 84 % 997,3 hPa 0,0 l/m 2 min 0 min 0,0 UV-I 121 W/m 20,6 km/h (4 Bft)
28.01.2014 09:58 3,7 C 2,2 C 84 % 997,4 hPa 0,0 l/m 2 min 0 min 0,0 UV-I 125 W/m 23,2 km/h (4 Bft)
28.01.2014 10:00 3,7 C 2,2 C 84 % 997,4 hPa 0,0 l/m 2 min 0 min 0,0 UV-I 130 W/m 23,2 km/h (4 Bft)
28.01.2014 10:02 3,8 C 2,2 C 84 % 997,4 hPa 0,0 l/m 2 min 0 min 0,0 UV-I 134 W/m 23,2 km/h (4 Bft)
28.01.2014 10:04 3,9 C 2,2 C 84 % 997,5 hPa 0,0 l/m 2 min 0 min 0,0 UV-I 137 W/m 28,3 km/h (4 Bft)
28.01.2014 10:06 3,9 C 2,8 C 83 % 997,5 hPa 0,0 l/m 2 min 0 min 0,0 UV-I 141 W/m 30,9 km/h (5 Bft)
28.01.2014 10:08 4,0 C 2,8 C 83 % 997,5 hPa 0,0 l/m 2 min 0 min 0,0 UV-I 146 W/m 20,6 km/h (4 Bft)
28.01.2014 10:10 4,1 C 2,8 C 83 % 997,5 hPa 0,0 l/m 2 min 0 min 0,0 UV-I 149 W/m 25,7 km/h (4 Bft)
28.01.2014 10:12 4,2 C 2,8 C 82 % 997,5 hPa 0,0 l/m 2 min 0 min 0,0 UV-I 153 W/m 25,7 km/h (4 Bft)
28.01.2014 10:14 4,3 C 2,8 C 82 % 997,5 hPa 0,0 l/m 2 min 0 min 0,0 UV-I 158 W/m 25,7 km/h (4 Bft)
28.01.2014 10:16 4,3 C 2,8 C 81 % 997,5 hPa 0,0 l/m 2 min 0 min 0,0 UV-I 162 W/m 20,6 km/h (4 Bft)
28.01.2014 10:18 4,4 C 2,8 C 81 % 997,5 hPa 0,0 l/m 2 min 0 min 0,0 UV-I 165 W/m 25,7 km/h (4 Bft)
28.01.2014 10:20 4,5 C 2,8 C 81 % 997,5 hPa 0,0 l/m 2 min 0 min 0,0 UV-I 169 W/m 33,5 km/h (5 Bft)
28.01.2014 10:22 4,6 C 2,8 C 80 % 997,4 hPa 0,0 l/m 2 min 0 min 0,0 UV-I 174 W/m 33,5 km/h (5 Bft)
28.01.2014 10:24 4,7 C 2,8 C 80 % 997,5 hPa 0,0 l/m 2 min 0 min 0,0 UV-I 178 W/m 33,5 km/h (5 Bft)
28.01.2014 10:26 4,7 C 2,8 C 80 % 997,4 hPa 0,0 l/m 2 min 0 min 0,0 UV-I 183 W/m 23,2 km/h (4 Bft)
28.01.2014 10:28 4,8 C 2,8 C 80 % 997,5 hPa 0,0 l/m 2 min 0 min 0,0 UV-I 186 W/m 30,9 km/h (5 Bft)
28.01.2014 10:30 4,8 C 2,8 C 79 % 997,4 hPa 0,0 l/m 2 min 0 min 0,0 UV-I 190 W/m 30,9 km/h (5 Bft)
28.01.2014 10:32 4,9 C 3,3 C 78 % 997,4 hPa 0,0 l/m 2 min 0 min 0,0 UV-I 195 W/m 38,6 km/h (5 Bft)
28.01.2014 10:34 4,9 C 3,3 C 78 % 997,4 hPa 0,0 l/m 2 min 0 min 0,0 UV-I 197 W/m 36,0 km/h (5 Bft)
28.01.2014 10:36 5,0 C 3,3 C 78 % 997,4 hPa 0,0 l/m 2 min 0 min 0,0 UV-I 202 W/m 30,9 km/h (5 Bft)
28.01.2014 10:38 5,1 C 3,3 C 77 % 997,4 hPa 0,0 l/m 2 min 0 min 0,0 UV-I 206 W/m 25,7 km/h (4 Bft)
28.01.2014 10:40 5,1 C 3,3 C 77 % 997,4 hPa 0,0 l/m 2 min 0 min 0,0 UV-I 209 W/m 23,2 km/h (4 Bft)
28.01.2014 10:42 5,2 C 3,3 C 77 % 997,4 hPa 0,0 l/m 2 min 0 min 0,0 UV-I 214 W/m 33,5 km/h (5 Bft)
28.01.2014 10:44 5,2 C 3,3 C 77 % 997,4 hPa 0,0 l/m 2 min 0 min 0,0 UV-I 216 W/m 41,2 km/h (6 Bft)
28.01.2014 10:46 5,3 C 3,3 C 76 % 997,5 hPa 0,0 l/m 2 min 0 min 0,0 UV-I 220 W/m 36,0 km/h (5 Bft)
28.01.2014 10:48 5,3 C 3,3 C 76 % 997,5 hPa 0,0 l/m 2 min 0 min 0,0 UV-I 223 W/m 36,0 km/h (5 Bft)
28.01.2014 10:50 5,2 C 3,3 C 76 % 997,4 hPa 0,0 l/m 2 min 0 min 0,0 UV-I 227 W/m 46,3 km/h (6 Bft)
28.01.2014 10:52 5,2 C 3,3 C 76 % 997,4 hPa 0,0 l/m 2 min 0 min 0,0 UV-I 229 W/m 38,6 km/h (5 Bft)
28.01.2014 10:54 5,2 C 3,3 C 76 % 997,5 hPa 0,0 l/m 2 min 0 min 0,0 UV-I 234 W/m 33,5 km/h (5 Bft)
28.01.2014 10:56 5,2 C 3,3 C 76 % 997,4 hPa 0,0 l/m 2 min 0 min 0,0 UV-I 236 W/m 43,8 km/h (6 Bft)
28.01.2014 10:58 5,2 C 3,3 C 76 % 997,4 hPa 0,0 l/m 2 min 0 min 0,0 UV-I 239 W/m 30,9 km/h (5 Bft)
28.01.2014 11:00 5,2 C 3,3 C 76 % 997,4 hPa 0,0 l/m 2 min 0 min 0,0 UV-I 243 W/m 25,7 km/h (4 Bft)
28.01.2014 11:02 5,3 C 3,3 C 76 % 997,5 hPa 0,0 l/m 2 min 0 min 0,0 UV-I 246 W/m 30,9 km/h (5 Bft)
28.01.2014 11:04 5,3 C 3,3 C 76 % 997,5 hPa 0,0 l/m 2 min 0 min 0,0 UV-I 248 W/m 54,1 km/h (7 Bft)
28.01.2014 11:06 5,3 C 3,3 C 76 % 997,6 hPa 0,0 l/m 2 min 0 min 0,0 UV-I 251 W/m 36,0 km/h (5 Bft)
28.01.2014 11:08 5,3 C 3,3 C 76 % 997,5 hPa 0,0 l/m 2 min 0 min 0,0 UV-I 253 W/m 38,6 km/h (5 Bft)
28.01.2014 11:10 5,3 C 3,3 C 76 % 997,5 hPa 0,0 l/m 2 min 0 min 0,0 UV-I 255 W/m 38,6 km/h (5 Bft)
28.01.2014 11:12 5,4 C 3,3 C 76 % 997,6 hPa 0,0 l/m 2 min 0 min 0,0 UV-I 257 W/m 51,5 km/h (7 Bft)
28.01.2014 11:14 5,3 C 3,3 C 76 % 997,5 hPa 0,0 l/m 2 min 0 min 0,0 UV-I 258 W/m 38,6 km/h (5 Bft)
28.01.2014 11:16 5,3 C 3,3 C 76 % 997,5 hPa 0,0 l/m 2 min 0 min 0,0 UV-I 260 W/m 28,3 km/h (4 Bft)
28.01.2014 11:18 5,4 C 3,3 C 76 % 997,5 hPa 0,0 l/m 2 min 0 min 0,0 UV-I 265 W/m 28,3 km/h (4 Bft)
28.01.2014 11:20 5,4 C 3,9 C 76 % 997,5 hPa 0,0 l/m 2 min 0 min 0,0 UV-I 267 W/m 28,3 km/h (4 Bft)
28.01.2014 11:22 5,6 C 3,9 C 76 % 997,6 hPa 0,0 l/m 2 min 0 min 0,0 UV-I 269 W/m 23,2 km/h (4 Bft)
28.01.2014 11:24 5,7 C 3,9 C 76 % 997,5 hPa 0,0 l/m 2 min 0 min 0,0 UV-I 272 W/m 38,6 km/h (5 Bft)
28.01.2014 11:26 5,7 C 3,9 C 75 % 997,6 hPa 0,0 l/m 2 min 0 min 0,0 UV-I 274 W/m 30,9 km/h (5 Bft)
28.01.2014 11:28 5,7 C 3,9 C 74 % 997,7 hPa 0,0 l/m 2 min 0 min 0,0 UV-I 276 W/m 36,0 km/h (5 Bft)
28.01.2014 11:30 5,7 C 3,9 C 74 % 997,5 hPa 0,0 l/m 2 min 0 min 0,0 UV-I 278 W/m 36,0 km/h (5 Bft)
28.01.2014 11:32 5,7 C 3,9 C 75 % 997,6 hPa 0,0 l/m 2 min 0 min 0,0 UV-I 278 W/m 28,3 km/h (4 Bft)
28.01.2014 11:34 5,8 C 3,9 C 75 % 997,6 hPa 0,0 l/m 2 min 0 min 0,0 UV-I 281 W/m 18,0 km/h (3 Bft)
28.01.2014 11:36 5,9 C 3,9 C 75 % 997,5 hPa 0,0 l/m 2 min 0 min 0,0 UV-I 287 W/m 28,3 km/h (4 Bft)
28.01.2014 11:38 5,9 C 3,9 C 75 % 997,5 hPa 0,0 l/m 2 min 0 min 0,0 UV-I 287 W/m 25,7 km/h (4 Bft)
28.01.2014 11:40 5,9 C 3,9 C 75 % 997,5 hPa 0,0 l/m 2 min 0 min 0,0 UV-I 290 W/m 18,0 km/h (3 Bft)
28.01.2014 11:42 5,9 C 3,9 C 75 % 997,5 hPa 0,0 l/m 2 min 0 min 0,0 UV-I 290 W/m 33,5 km/h (5 Bft)
28.01.2014 11:44 5,9 C 3,9 C 74 % 997,5 hPa 0,0 l/m 2 min 0 min 0,0 UV-I 292 W/m 23,2 km/h (4 Bft)
28.01.2014 11:46 5,9 C 3,9 C 74 % 997,4 hPa 0,0 l/m 2 min 0 min 0,0 UV-I 292 W/m 41,2 km/h (6 Bft)
28.01.2014 11:48 5,9 C 3,9 C 74 % 997,5 hPa 0,0 l/m 2 min 0 min 0,0 UV-I 292 W/m 28,3 km/h (4 Bft)
28.01.2014 11:50 5,9 C 3,9 C 74 % 997,4 hPa 0,0 l/m 2 min 0 min 0,0 UV-I 294 W/m 30,9 km/h (5 Bft)
28.01.2014 11:52 5,9 C 3,9 C 74 % 997,5 hPa 0,0 l/m 2 min 0 min 0,0 UV-I 297 W/m 41,2 km/h (6 Bft)
28.01.2014 11:54 5,9 C 3,9 C 74 % 997,5 hPa 0,0 l/m 2 min 0 min 0,0 UV-I 301 W/m 30,9 km/h (5 Bft)
28.01.2014 11:56 5,9 C 3,9 C 74 % 997,5 hPa 0,0 l/m 2 min 0 min 0,0 UV-I 301 W/m 36,0 km/h (5 Bft)
28.01.2014 11:58 5,9 C 4,4 C 74 % 997,4 hPa 0,0 l/m 2 min 0 min 0,0 UV-I 301 W/m 25,7 km/h (4 Bft)
28.01.2014 12:00 5,9 C 4,4 C 74 % 997,5 hPa 0,0 l/m 2 min 0 min 0,0 UV-I 302 W/m 25,7 km/h (4 Bft)
28.01.2014 12:02 5,9 C 4,4 C 73 % 997,4 hPa 0,0 l/m 2 min 0 min 0,0 UV-I 302 W/m 33,5 km/h (5 Bft)
28.01.2014 12:04 5,9 C 4,4 C 74 % 997,4 hPa 0,0 l/m 2 min 0 min 0,0 UV-I 304 W/m 28,3 km/h (4 Bft)
28.01.2014 12:06 5,9 C 4,4 C 73 % 997,4 hPa 0,0 l/m 2 min 0 min 0,0 UV-I 306 W/m 38,6 km/h (5 Bft)
28.01.2014 12:08 5,9 C 4,4 C 73 % 997,4 hPa 0,0 l/m 2 min 0 min 0,0 UV-I 308 W/m 33,5 km/h (5 Bft)
28.01.2014 12:10 5,9 C 4,4 C 73 % 997,4 hPa 0,0 l/m 2 min 0 min 0,0 UV-I 308 W/m 25,7 km/h (4 Bft)
28.01.2014 12:12 6,0 C 4,4 C 73 % 997,4 hPa 0,0 l/m 2 min 0 min 0,0 UV-I 309 W/m 28,3 km/h (4 Bft)
28.01.2014 12:14 6,0 C 4,4 C 73 % 997,4 hPa 0,0 l/m 2 min 0 min 0,0 UV-I 309 W/m 28,3 km/h (4 Bft)
28.01.2014 12:16 6,0 C 4,4 C 73 % 997,3 hPa 0,0 l/m 2 min 0 min 0,0 UV-I 311 W/m 36,0 km/h (5 Bft)
28.01.2014 12:18 6,1 C 4,4 C 73 % 997,2 hPa 0,0 l/m 2 min 0 min 0,0 UV-I 311 W/m 25,7 km/h (4 Bft)
28.01.2014 12:20 6,1 C 4,4 C 73 % 997,3 hPa 0,0 l/m 2 min 0 min 0,0 UV-I 311 W/m 30,9 km/h (5 Bft)
28.01.2014 12:22 6,1 C 4,4 C 73 % 997,3 hPa 0,0 l/m 2 min 0 min 0,0 UV-I 315 W/m 30,9 km/h (5 Bft)
28.01.2014 12:24 6,2 C 4,4 C 74 % 997,3 hPa 0,0 l/m 2 min 0 min 0,0 UV-I 313 W/m 23,2 km/h (4 Bft)
28.01.2014 12:26 6,3 C 4,4 C 73 % 997,3 hPa 0,0 l/m 2 min 0 min 0,0 UV-I 318 W/m 28,3 km/h (4 Bft)
28.01.2014 12:28 6,3 C 4,4 C 73 % 997,4 hPa 0,0 l/m 2 min 0 min 0,0 UV-I 325 W/m 33,5 km/h (5 Bft)
28.01.2014 12:30 6,3 C 4,4 C 72 % 997,5 hPa 0,0 l/m 2 min 0 min 0,0 UV-I 323 W/m 23,2 km/h (4 Bft)
28.01.2014 12:32 6,3 C 4,4 C 72 % 997,4 hPa 0,0 l/m 2 min 0 min 0,0 UV-I 318 W/m 33,5 km/h (5 Bft)
28.01.2014 12:34 6,2 C 4,4 C 72 % 997,4 hPa 0,0 l/m 2 min 0 min 0,0 UV-I 320 W/m 25,7 km/h (4 Bft)
28.01.2014 12:36 6,2 C 4,4 C 72 % 997,3 hPa 0,0 l/m 2 min 0 min 0,0 UV-I 320 W/m 30,9 km/h (5 Bft)
28.01.2014 12:38 6,2 C 4,4 C 72 % 997,3 hPa 0,0 l/m 2 min 0 min 0,0 UV-I 322 W/m 36,0 km/h (5 Bft)
28.01.2014 12:40 6,2 C 4,4 C 72 % 997,4 hPa 0,0 l/m 2 min 0 min 0,0 UV-I 320 W/m 33,5 km/h (5 Bft)
28.01.2014 12:42 6,2 C 4,4 C 72 % 997,4 hPa 0,0 l/m 2 min 0 min 0,0 UV-I 320 W/m 23,2 km/h (4 Bft)
28.01.2014 12:44 6,2 C 4,4 C 72 % 997,4 hPa 0,0 l/m 2 min 0 min 0,0 UV-I 320 W/m 30,9 km/h (5 Bft)
28.01.2014 12:46 6,4 C 4,4 C 73 % 997,4 hPa 0,0 l/m 2 min 0 min 0,0 UV-I 318 W/m 18,0 km/h (3 Bft)
28.01.2014 12:48 6,6 C 5,0 C 73 % 997,4 hPa 0,0 l/m 2 min 0 min 0,0 UV-I 320 W/m 23,2 km/h (4 Bft)
28.01.2014 12:50 6,6 C 5,0 C 71 % 997,4 hPa 0,0 l/m 2 min 0 min 0,0 UV-I 320 W/m 38,6 km/h (5 Bft)
28.01.2014 12:52 6,4 C 4,4 C 71 % 997,3 hPa 0,0 l/m 2 min 0 min 0,0 UV-I 320 W/m 28,3 km/h (4 Bft)
28.01.2014 12:54 6,4 C 5,0 C 71 % 997,3 hPa 0,0 l/m 2 min 0 min 0,0 UV-I 316 W/m 28,3 km/h (4 Bft)
28.01.2014 12:56 6,4 C 5,0 C 71 % 997,3 hPa 0,0 l/m 2 min 0 min 0,0 UV-I 315 W/m 30,9 km/h (5 Bft)
28.01.2014 12:58 6,4 C 5,0 C 72 % 997,4 hPa 0,0 l/m 2 min 0 min 0,0 UV-I 322 W/m 48,9 km/h (6 Bft)
28.01.2014 13:00 6,4 C 5,0 C 71 % 997,3 hPa 0,0 l/m 2 min 0 min 0,0 UV-I 318 W/m 33,5 km/h (5 Bft)
28.01.2014 13:02 6,4 C 5,0 C 71 % 997,2 hPa 0,0 l/m 2 min 0 min 0,0 UV-I 320 W/m 33,5 km/h (5 Bft)
28.01.2014 13:04 6,4 C 5,0 C 71 % 997,4 hPa 0,0 l/m 2 min 0 min 0,0 UV-I 320 W/m 43,8 km/h (6 Bft)
28.01.2014 13:06 6,4 C 5,0 C 72 % 997,3 hPa 0,0 l/m 2 min 0 min 0,0 UV-I 322 W/m 41,2 km/h (6 Bft)
28.01.2014 13:08 6,4 C 5,0 C 72 % 997,2 hPa 0,0 l/m 2 min 0 min 0,0 UV-I 316 W/m 15,4 km/h (3 Bft)
28.01.2014 13:10 6,6 C 5,0 C 72 % 997,2 hPa 0,0 l/m 2 min 0 min 0,0 UV-I 318 W/m 25,7 km/h (4 Bft)
28.01.2014 13:12 6,6 C 5,0 C 72 % 997,2 hPa 0,0 l/m 2 min 0 min 0,0 UV-I 320 W/m 33,5 km/h (5 Bft)
28.01.2014 13:14 6,7 C 5,0 C 72 % 997,2 hPa 0,0 l/m 2 min 0 min 0,0 UV-I 320 W/m 18,0 km/h (3 Bft)
28.01.2014 13:16 6,7 C 5,0 C 72 % 997,2 hPa 0,0 l/m 2 min 0 min 0,0 UV-I 318 W/m 33,5 km/h (5 Bft)
28.01.2014 13:18 6,7 C 5,0 C 70 % 997,3 hPa 0,0 l/m 2 min 0 min 0,0 UV-I 318 W/m 43,8 km/h (6 Bft)
28.01.2014 13:20 6,6 C 5,0 C 70 % 997,2 hPa 0,0 l/m 2 min 0 min 0,0 UV-I 316 W/m 38,6 km/h (5 Bft)
28.01.2014 13:22 6,6 C 5,0 C 70 % 997,2 hPa 0,0 l/m 2 min 0 min 0,0 UV-I 316 W/m 30,9 km/h (5 Bft)
28.01.2014 13:24 6,6 C 5,0 C 70 % 997,2 hPa 0,0 l/m 2 min 0 min 0,0 UV-I 318 W/m 20,6 km/h (4 Bft)
28.01.2014 13:26 6,6 C 5,0 C 71 % 997,1 hPa 0,0 l/m 2 min 0 min 0,0 UV-I 316 W/m 38,6 km/h (5 Bft)
28.01.2014 13:28 6,6 C 5,0 C 70 % 997,1 hPa 0,0 l/m 2 min 0 min 0,0 UV-I 315 W/m 41,2 km/h (6 Bft)
28.01.2014 13:30 6,6 C 5,0 C 70 % 997,0 hPa 0,0 l/m 2 min 0 min 0,0 UV-I 313 W/m 38,6 km/h (5 Bft)
28.01.2014 13:32 6,6 C 5,0 C 70 % 997,1 hPa 0,0 l/m 2 min 0 min 0,0 UV-I 315 W/m 36,0 km/h (5 Bft)
28.01.2014 13:34 6,6 C 5,0 C 70 % 997,1 hPa 0,0 l/m 2 min 0 min 0,0 UV-I 316 W/m 30,9 km/h (5 Bft)
28.01.2014 13:36 6,6 C 5,0 C 70 % 997,1 hPa 0,0 l/m 2 min 0 min 0,0 UV-I 316 W/m 38,6 km/h (5 Bft)
28.01.2014 13:38 6,6 C 5,0 C 70 % 997,2 hPa 0,0 l/m 2 min 0 min 0,0 UV-I 311 W/m 25,7 km/h (4 Bft)
28.01.2014 13:40 6,7 C 5,0 C 70 % 997,0 hPa 0,0 l/m 2 min 0 min 0,0 UV-I 311 W/m 28,3 km/h (4 Bft)
28.01.2014 13:42 6,8 C 5,0 C 70 % 997,1 hPa 0,0 l/m 2 min 0 min 0,0 UV-I 308 W/m 25,7 km/h (4 Bft)
28.01.2014 13:44 6,8 C 5,0 C 70 % 997,0 hPa 0,0 l/m 2 min 0 min 0,0 UV-I 306 W/m 28,3 km/h (4 Bft)
28.01.2014 13:46 6,9 C 5,0 C 70 % 996,9 hPa 0,0 l/m 2 min 0 min 0,0 UV-I 306 W/m 43,8 km/h (6 Bft)
28.01.2014 13:48 6,8 C 5,0 C 70 % 997,0 hPa 0,0 l/m 2 min 0 min 0,0 UV-I 304 W/m 30,9 km/h (5 Bft)
28.01.2014 13:50 6,8 C 5,0 C 70 % 996,9 hPa 0,0 l/m 2 min 0 min 0,0 UV-I 302 W/m 28,3 km/h (4 Bft)
28.01.2014 13:52 6,8 C 5,0 C 70 % 996,9 hPa 0,0 l/m 2 min 0 min 0,0 UV-I 299 W/m 30,9 km/h (5 Bft)
28.01.2014 13:54 6,8 C 5,0 C 70 % 996,8 hPa 0,0 l/m 2 min 0 min 0,0 UV-I 301 W/m 38,6 km/h (5 Bft)
28.01.2014 13:56 6,8 C 5,0 C 70 % 996,9 hPa 0,0 l/m 2 min 0 min 0,0 UV-I 301 W/m 36,0 km/h (5 Bft)
28.01.2014 13:58 6,9 C 5,6 C 70 % 996,9 hPa 0,0 l/m 2 min 0 min 0,0 UV-I 299 W/m 18,0 km/h (3 Bft)
28.01.2014 14:00 6,9 C 5,6 C 70 % 996,8 hPa 0,0 l/m 2 min 0 min 0,0 UV-I 299 W/m 25,7 km/h (4 Bft)
28.01.2014 14:02 6,9 C 5,6 C 70 % 996,8 hPa 0,0 l/m 2 min 0 min 0,0 UV-I 297 W/m 33,5 km/h (5 Bft)
28.01.2014 14:04 6,9 C 5,6 C 70 % 996,6 hPa 0,0 l/m 2 min 0 min 0,0 UV-I 295 W/m 28,3 km/h (4 Bft)
28.01.2014 14:06 7,0 C 5,6 C 70 % 996,8 hPa 0,0 l/m 2 min 0 min 0,0 UV-I 294 W/m 18,0 km/h (3 Bft)
28.01.2014 14:08 7,1 C 5,6 C 70 % 996,9 hPa 0,0 l/m 2 min 0 min 0,0 UV-I 290 W/m 36,0 km/h (5 Bft)
28.01.2014 14:10 7,1 C 5,6 C 70 % 996,7 hPa 0,0 l/m 2 min 0 min 0,0 UV-I 288 W/m 20,6 km/h (4 Bft)
28.01.2014 14:12 7,1 C 5,6 C 69 % 996,7 hPa 0,0 l/m 2 min 0 min 0,0 UV-I 287 W/m 30,9 km/h (5 Bft)
28.01.2014 14:14 7,1 C 5,6 C 69 % 996,7 hPa 0,0 l/m 2 min 0 min 0,0 UV-I 283 W/m 28,3 km/h (4 Bft)
28.01.2014 14:16 7,1 C 5,6 C 69 % 996,7 hPa 0,0 l/m 2 min 0 min 0,0 UV-I 283 W/m 38,6 km/h (5 Bft)
28.01.2014 14:18 7,0 C 5,6 C 69 % 996,8 hPa 0,0 l/m 2 min 0 min 0,0 UV-I 279 W/m 28,3 km/h (4 Bft)
28.01.2014 14:20 6,9 C 5,6 C 69 % 996,7 hPa 0,0 l/m 2 min 0 min 0,0 UV-I 278 W/m 30,9 km/h (5 Bft)
28.01.2014 14:22 6,9 C 5,6 C 69 % 996,6 hPa 0,0 l/m 2 min 0 min 0,0 UV-I 276 W/m 28,3 km/h (4 Bft)
28.01.2014 14:24 6,9 C 5,6 C 69 % 996,6 hPa 0,0 l/m 2 min 0 min 0,0 UV-I 274 W/m 38,6 km/h (5 Bft)
28.01.2014 14:26 6,8 C 5,6 C 69 % 996,4 hPa 0,0 l/m 2 min 0 min 0,0 UV-I 271 W/m 30,9 km/h (5 Bft)
28.01.2014 14:28 6,9 C 5,6 C 69 % 996,4 hPa 0,0 l/m 2 min 0 min 0,0 UV-I 269 W/m 36,0 km/h (5 Bft)
28.01.2014 14:30 6,9 C 5,6 C 69 % 996,6 hPa 0,0 l/m 2 min 0 min 0,0 UV-I 271 W/m 25,7 km/h (4 Bft)
28.01.2014 14:32 6,9 C 5,6 C 70 % 996,5 hPa 0,0 l/m 2 min 0 min 0,0 UV-I 262 W/m 28,3 km/h (4 Bft)
28.01.2014 14:34 6,9 C 5,6 C 69 % 996,4 hPa 0,0 l/m 2 min 0 min 0,0 UV-I 251 W/m 30,9 km/h (5 Bft)
28.01.2014 14:36 6,9 C 5,6 C 69 % 996,5 hPa 0,0 l/m 2 min 0 min 0,0 UV-I 251 W/m 28,3 km/h (4 Bft)
28.01.2014 14:38 6,9 C 5,6 C 70 % 996,5 hPa 0,0 l/m 2 min 0 min 0,0 UV-I 253 W/m 25,7 km/h (4 Bft)
28.01.2014 14:40 6,9 C 5,6 C 70 % 996,5 hPa 0,0 l/m 2 min 0 min 0,0 UV-I 244 W/m 36,0 km/h (5 Bft)
28.01.2014 14:42 6,8 C 5,6 C 70 % 996,4 hPa 0,0 l/m 2 min 0 min 0,0 UV-I 236 W/m 36,0 km/h (5 Bft)
28.01.2014 14:44 6,8 C 5,0 C 69 % 996,4 hPa 0,0 l/m 2 min 0 min 0,0 UV-I 243 W/m 36,0 km/h (5 Bft)
28.01.2014 14:46 6,8 C 5,0 C 70 % 996,3 hPa 0,0 l/m 2 min 0 min 0,0 UV-I 236 W/m 36,0 km/h (5 Bft)
28.01.2014 14:48 6,8 C 5,0 C 70 % 996,4 hPa 0,0 l/m 2 min 0 min 0,0 UV-I 243 W/m 36,0 km/h (5 Bft)
28.01.2014 14:50 6,8 C 5,0 C 70 % 996,3 hPa 0,0 l/m 0 min 0 min 0,0 UV-I 135 W/m 30,9 km/h (5 Bft)
28.01.2014 14:52 6,7 C 5,0 C 71 % 996,3 hPa 0,0 l/m 0 min 0 min 0,0 UV-I 132 W/m 36,0 km/h (5 Bft)
28.01.2014 14:54 6,7 C 5,0 C 70 % 996,3 hPa 0,0 l/m 0 min 0 min 0,0 UV-I 90 W/m 30,9 km/h (5 Bft)
28.01.2014 14:56 6,6 C 5,0 C 71 % 996,3 hPa 0,0 l/m 0 min 0 min 0,0 UV-I 120 W/m 18,0 km/h (3 Bft)
28.01.2014 14:58 6,5 C 5,0 C 71 % 996,3 hPa 0,0 l/m 0 min 0 min 0,0 UV-I 104 W/m 20,6 km/h (4 Bft)
28.01.2014 15:00 6,4 C 5,0 C 71 % 996,3 hPa 0,0 l/m 0 min 0 min 0,0 UV-I 86 W/m 30,9 km/h (5 Bft)
28.01.2014 15:02 6,4 C 4,4 C 71 % 996,3 hPa 0,0 l/m 0 min 0 min 0,0 UV-I 74 W/m 18,0 km/h (3 Bft)
28.01.2014 15:04 6,4 C 4,4 C 71 % 996,3 hPa 0,0 l/m 0 min 0 min 0,0 UV-I 65 W/m 25,7 km/h (4 Bft)
28.01.2014 15:06 6,4 C 4,4 C 72 % 996,2 hPa 0,0 l/m 0 min 0 min 0,0 UV-I 62 W/m 25,7 km/h (4 Bft)
28.01.2014 15:08 6,3 C 4,4 C 72 % 996,3 hPa 0,0 l/m 0 min 0 min 0,0 UV-I 65 W/m 23,2 km/h (4 Bft)
28.01.2014 15:10 6,2 C 4,4 C 72 % 996,3 hPa 0,0 l/m 0 min 0 min 0,0 UV-I 67 W/m 38,6 km/h (5 Bft)
28.01.2014 15:12 6,2 C 4,4 C 72 % 996,3 hPa 0,0 l/m 0 min 0 min 0,0 UV-I 63 W/m 20,6 km/h (4 Bft)
28.01.2014 15:14 6,2 C 4,4 C 72 % 996,2 hPa 0,0 l/m 0 min 0 min 0,0 UV-I 69 W/m 28,3 km/h (4 Bft)
28.01.2014 15:16 6,2 C 4,4 C 72 % 996,3 hPa 0,0 l/m 0 min 0 min 0,0 UV-I 76 W/m 30,9 km/h (5 Bft)
28.01.2014 15:18 6,1 C 4,4 C 73 % 996,2 hPa 0,0 l/m 0 min 0 min 0,0 UV-I 70 W/m 15,4 km/h (3 Bft)
28.01.2014 15:20 6,1 C 4,4 C 73 % 996,3 hPa 0,0 l/m 0 min 0 min 0,0 UV-I 65 W/m 18,0 km/h (3 Bft)
28.01.2014 15:22 6,0 C 4,4 C 74 % 996,3 hPa 0,0 l/m 0 min 0 min 0,0 UV-I 60 W/m 15,4 km/h (3 Bft)
28.01.2014 15:24 6,0 C 4,4 C 73 % 996,3 hPa 0,0 l/m 0 min 0 min 0,0 UV-I 56 W/m 30,9 km/h (5 Bft)
28.01.2014 15:26 5,9 C 4,4 C 73 % 996,3 hPa 0,0 l/m 0 min 0 min 0,0 UV-I 58 W/m 30,9 km/h (5 Bft)
28.01.2014 15:28 5,9 C 4,4 C 73 % 996,4 hPa 0,0 l/m 0 min 0 min 0,0 UV-I 58 W/m 30,9 km/h (5 Bft)
28.01.2014 15:30 5,9 C 4,4 C 73 % 996,4 hPa 0,0 l/m 0 min 0 min 0,0 UV-I 60 W/m 20,6 km/h (4 Bft)
28.01.2014 15:32 5,8 C 4,4 C 72 % 996,4 hPa 0,0 l/m 0 min 0 min 0,0 UV-I 62 W/m 20,6 km/h (4 Bft)
28.01.2014 15:34 5,8 C 4,4 C 72 % 996,4 hPa 0,0 l/m 0 min 0 min 0,0 UV-I 63 W/m 30,9 km/h (5 Bft)
28.01.2014 15:36 5,8 C 4,4 C 72 % 996,4 hPa 0,0 l/m 0 min 0 min 0,0 UV-I 69 W/m 28,3 km/h (4 Bft)
28.01.2014 15:38 5,8 C 4,4 C 72 % 996,5 hPa 0,0 l/m 0 min 0 min 0,0 UV-I 74 W/m 33,5 km/h (5 Bft)
28.01.2014 15:40 5,8 C 4,4 C 72 % 996,5 hPa 0,0 l/m 0 min 0 min 0,0 UV-I 74 W/m 25,7 km/h (4 Bft)
28.01.2014 15:42 5,8 C 4,4 C 72 % 996,5 hPa 0,0 l/m 0 min 0 min 0,0 UV-I 69 W/m 12,9 km/h (3 Bft)
28.01.2014 15:44 5,8 C 4,4 C 72 % 996,5 hPa 0,0 l/m 0 min 0 min 0,0 UV-I 69 W/m 20,6 km/h (4 Bft)
28.01.2014 15:46 5,8 C 4,4 C 73 % 996,5 hPa 0,0 l/m 0 min 0 min 0,0 UV-I 72 W/m 18,0 km/h (3 Bft)
28.01.2014 15:48 5,7 C 4,4 C 73 % 996,5 hPa 0,0 l/m 0 min 0 min 0,0 UV-I 72 W/m 20,6 km/h (4 Bft)
28.01.2014 15:50 5,7 C 4,4 C 73 % 996,5 hPa 0,0 l/m 0 min 0 min 0,0 UV-I 63 W/m 10,3 km/h (2 Bft)
28.01.2014 15:52 5,7 C 4,4 C 73 % 996,5 hPa 0,0 l/m 0 min 0 min 0,0 UV-I 77 W/m 12,9 km/h (3 Bft)
28.01.2014 15:54 5,7 C 4,4 C 73 % 996,5 hPa 0,0 l/m 0 min 0 min 0,0 UV-I 83 W/m 20,6 km/h (4 Bft)
28.01.2014 15:56 5,7 C 4,4 C 73 % 996,6 hPa 0,0 l/m 0 min 0 min 0,0 UV-I 69 W/m 23,2 km/h (4 Bft)
28.01.2014 15:58 5,7 C 4,4 C 73 % 996,7 hPa 0,0 l/m 0 min 0 min 0,0 UV-I 67 W/m 23,2 km/h (4 Bft)
28.01.2014 16:00 5,7 C 4,4 C 74 % 996,7 hPa 0,0 l/m 0 min 0 min 0,0 UV-I 62 W/m 20,6 km/h (4 Bft)
28.01.2014 16:02 5,7 C 4,4 C 74 % 996,7 hPa 0,0 l/m 0 min 0 min 0,0 UV-I 60 W/m 15,4 km/h (3 Bft)
28.01.2014 16:04 5,7 C 4,4 C 74 % 996,7 hPa 0,0 l/m 0 min 0 min 0,0 UV-I 56 W/m 10,3 km/h (2 Bft)
28.01.2014 16:06 5,7 C 4,4 C 74 % 996,6 hPa 0,0 l/m 0 min 0 min 0,0 UV-I 54 W/m 18,0 km/h (3 Bft)
28.01.2014 16:08 5,7 C 4,4 C 74 % 996,6 hPa 0,0 l/m 0 min 0 min 0,0 UV-I 54 W/m 15,4 km/h (3 Bft)
28.01.2014 16:10 5,7 C 4,4 C 74 % 996,7 hPa 0,0 l/m 0 min 0 min 0,0 UV-I 54 W/m 18,0 km/h (3 Bft)
28.01.2014 16:12 5,7 C 4,4 C 74 % 996,7 hPa 0,0 l/m 0 min 0 min 0,0 UV-I 54 W/m 18,0 km/h (3 Bft)
28.01.2014 16:14 5,7 C 4,4 C 74 % 996,7 hPa 0,0 l/m 0 min 0 min 0,0 UV-I 53 W/m 15,4 km/h (3 Bft)
28.01.2014 16:16 5,7 C 4,4 C 74 % 996,7 hPa 0,0 l/m 0 min 0 min 0,0 UV-I 51 W/m 25,7 km/h (4 Bft)
28.01.2014 16:18 5,7 C 4,4 C 74 % 996,7 hPa 0,0 l/m 0 min 0 min 0,0 UV-I 51 W/m 25,7 km/h (4 Bft)
28.01.2014 16:20 5,7 C 4,4 C 74 % 996,7 hPa 0,0 l/m 0 min 0 min 0,0 UV-I 51 W/m 20,6 km/h (4 Bft)
28.01.2014 16:22 5,7 C 4,4 C 73 % 996,6 hPa 0,0 l/m 0 min 0 min 0,0 UV-I 51 W/m 15,4 km/h (3 Bft)
28.01.2014 16:24 5,8 C 4,4 C 73 % 996,7 hPa 0,0 l/m 0 min 0 min 0,0 UV-I 49 W/m 23,2 km/h (4 Bft)
28.01.2014 16:26 5,8 C 4,4 C 73 % 996,7 hPa 0,0 l/m 0 min 0 min 0,0 UV-I 49 W/m 20,6 km/h (4 Bft)
28.01.2014 16:28 5,8 C 4,4 C 73 % 996,8 hPa 0,0 l/m 0 min 0 min 0,0 UV-I 47 W/m 18,0 km/h (3 Bft)
28.01.2014 16:30 5,7 C 4,4 C 74 % 996,8 hPa 0,0 l/m 0 min 0 min 0,0 UV-I 46 W/m 20,6 km/h (4 Bft)
28.01.2014 16:32 5,7 C 3,9 C 74 % 996,7 hPa 0,0 l/m 0 min 0 min 0,0 UV-I 42 W/m 12,9 km/h (3 Bft)
28.01.2014 16:34 5,7 C 3,9 C 74 % 996,7 hPa 0,0 l/m 0 min 0 min 0,0 UV-I 39 W/m 18,0 km/h (3 Bft)
28.01.2014 16:36 5,7 C 3,9 C 74 % 996,7 hPa 0,0 l/m 0 min 0 min 0,0 UV-I 35 W/m 18,0 km/h (3 Bft)
28.01.2014 16:38 5,7 C 3,9 C 74 % 996,7 hPa 0,0 l/m 0 min 0 min 0,0 UV-I 33 W/m 25,7 km/h (4 Bft)
28.01.2014 16:40 5,6 C 3,9 C 74 % 996,6 hPa 0,0 l/m 0 min 0 min 0,0 UV-I 30 W/m 23,2 km/h (4 Bft)
28.01.2014 16:42 5,6 C 3,9 C 73 % 996,7 hPa 0,0 l/m 0 min 0 min 0,0 UV-I 30 W/m 23,2 km/h (4 Bft)
28.01.2014 16:44 5,6 C 3,9 C 73 % 996,7 hPa 0,0 l/m 0 min 0 min 0,0 UV-I 28 W/m 30,9 km/h (5 Bft)
28.01.2014 16:46 5,6 C 3,9 C 73 % 996,7 hPa 0,0 l/m 0 min 0 min 0,0 UV-I 25 W/m 18,0 km/h (3 Bft)
28.01.2014 16:48 5,5 C 3,9 C 73 % 996,7 hPa 0,0 l/m 0 min 0 min 0,0 UV-I 23 W/m 18,0 km/h (3 Bft)
28.01.2014 16:50 5,5 C 3,9 C 73 % 996,7 hPa 0,0 l/m 0 min 0 min 0,0 UV-I 21 W/m 30,9 km/h (5 Bft)
28.01.2014 16:52 5,4 C 3,9 C 73 % 996,7 hPa 0,0 l/m 0 min 0 min 0,0 UV-I 19 W/m 30,9 km/h (5 Bft)
28.01.2014 16:54 5,4 C 3,9 C 72 % 996,7 hPa 0,0 l/m 0 min 0 min 0,0 UV-I 18 W/m 28,3 km/h (4 Bft)
28.01.2014 16:56 5,4 C 3,9 C 73 % 996,8 hPa 0,0 l/m 0 min 0 min 0,0 UV-I 16 W/m 20,6 km/h (4 Bft)
28.01.2014 16:58 5,4 C 3,3 C 73 % 996,8 hPa 0,0 l/m 0 min 0 min 0,0 UV-I 12 W/m 28,3 km/h (4 Bft)
28.01.2014 17:00 5,3 C 3,3 C 73 % 996,8 hPa 0,0 l/m 0 min 0 min 0,0 UV-I 12 W/m 20,6 km/h (4 Bft)
28.01.2014 17:02 5,3 C 3,3 C 73 % 996,7 hPa 0,0 l/m 0 min 0 min 0,0 UV-I 11 W/m 23,2 km/h (4 Bft)
28.01.2014 17:04 5,3 C 3,3 C 73 % 996,7 hPa 0,0 l/m 0 min 0 min 0,0 UV-I 9 W/m 23,2 km/h (4 Bft)
28.01.2014 17:06 5,2 C 3,3 C 73 % 996,8 hPa 0,0 l/m 0 min 0 min 0,0 UV-I 9 W/m 20,6 km/h (4 Bft)
28.01.2014 17:08 5,2 C 3,3 C 73 % 996,7 hPa 0,0 l/m 0 min 0 min 0,0 UV-I 7 W/m 28,3 km/h (4 Bft)
28.01.2014 17:10 5,2 C 3,3 C 73 % 996,7 hPa 0,0 l/m 0 min 0 min 0,0 UV-I 7 W/m 15,4 km/h (3 Bft)
28.01.2014 17:12 5,2 C 3,3 C 73 % 996,7 hPa 0,0 l/m 0 min 0 min 0,0 UV-I 7 W/m 20,6 km/h (4 Bft)
28.01.2014 17:14 5,1 C 3,3 C 73 % 996,7 hPa 0,0 l/m 0 min 0 min 0,0 UV-I 5 W/m 20,6 km/h (4 Bft)
28.01.2014 17:16 5,1 C 3,3 C 73 % 996,7 hPa 0,0 l/m 0 min 0 min 0,0 UV-I 5 W/m 33,5 km/h (5 Bft)
28.01.2014 17:18 5,1 C 3,3 C 73 % 996,7 hPa 0,0 l/m 0 min 0 min 0,0 UV-I 0 W/m 20,6 km/h (4 Bft)
28.01.2014 17:20 5,1 C 3,3 C 73 % 996,6 hPa 0,0 l/m 0 min 0 min 0,0 UV-I 0 W/m 23,2 km/h (4 Bft)
28.01.2014 17:22 5,1 C 3,3 C 73 % 996,7 hPa 0,0 l/m 0 min 0 min 0,0 UV-I 0 W/m 30,9 km/h (5 Bft)
28.01.2014 17:24 5,0 C 3,3 C 73 % 996,6 hPa 0,0 l/m 0 min 0 min 0,0 UV-I 0 W/m 18,0 km/h (3 Bft)
28.01.2014 17:26 5,0 C 3,3 C 73 % 996,6 hPa 0,0 l/m 0 min 0 min 0,0 UV-I 0 W/m 36,0 km/h (5 Bft)
28.01.2014 17:28 4,9 C 3,3 C 73 % 996,6 hPa 0,0 l/m 0 min 0 min 0,0 UV-I 0 W/m 25,7 km/h (4 Bft)
28.01.2014 17:30 4,9 C 2,8 C 73 % 996,7 hPa 0,0 l/m 0 min 0 min 0,0 UV-I 0 W/m 30,9 km/h (5 Bft)
28.01.2014 17:32 4,9 C 2,8 C 73 % 996,6 hPa 0,0 l/m 0 min 0 min 0,0 UV-I 0 W/m 30,9 km/h (5 Bft)
28.01.2014 17:34 4,9 C 2,8 C 73 % 996,6 hPa 0,0 l/m 0 min 0 min 0,0 UV-I 0 W/m 18,0 km/h (3 Bft)
28.01.2014 17:36 4,9 C 2,8 C 73 % 996,6 hPa 0,0 l/m 0 min 0 min 0,0 UV-I 0 W/m 25,7 km/h (4 Bft)
28.01.2014 17:38 4,9 C 2,8 C 73 % 996,6 hPa 0,0 l/m 0 min 0 min 0,0 UV-I 0 W/m 23,2 km/h (4 Bft)
28.01.2014 17:40 4,8 C 2,8 C 73 % 996,6 hPa 0,0 l/m 0 min 0 min 0,0 UV-I 0 W/m 20,6 km/h (4 Bft)
28.01.2014 17:42 4,8 C 2,8 C 73 % 996,7 hPa 0,0 l/m 0 min 0 min 0,0 UV-I 0 W/m 33,5 km/h (5 Bft)
28.01.2014 17:44 4,8 C 2,8 C 73 % 996,7 hPa 0,0 l/m 0 min 0 min 0,0 UV-I 0 W/m 20,6 km/h (4 Bft)
28.01.2014 17:46 4,8 C 2,8 C 73 % 996,7 hPa 0,0 l/m 0 min 0 min 0,0 UV-I 0 W/m 30,9 km/h (5 Bft)
28.01.2014 17:48 4,8 C 2,8 C 73 % 996,6 hPa 0,0 l/m 0 min 0 min 0,0 UV-I 0 W/m 25,7 km/h (4 Bft)
28.01.2014 17:50 4,8 C 2,8 C 73 % 996,6 hPa 0,0 l/m 0 min 0 min 0,0 UV-I 0 W/m 23,2 km/h (4 Bft)
28.01.2014 17:52 4,8 C 2,8 C 73 % 996,6 hPa 0,0 l/m 0 min 0 min 0,0 UV-I 0 W/m 20,6 km/h (4 Bft)
28.01.2014 17:54 4,9 C 2,8 C 73 % 996,7 hPa 0,0 l/m 0 min 0 min 0,0 UV-I 0 W/m 25,7 km/h (4 Bft)
28.01.2014 17:56 4,8 C 2,8 C 73 % 996,6 hPa 0,0 l/m 0 min 0 min 0,0 UV-I 0 W/m 41,2 km/h (6 Bft)
28.01.2014 17:58 4,8 C 2,8 C 73 % 996,7 hPa 0,0 l/m 0 min 0 min 0,0 UV-I 0 W/m 33,5 km/h (5 Bft)
28.01.2014 18:00 4,8 C 2,8 C 73 % 996,7 hPa 0,0 l/m 0 min 0 min 0,0 UV-I 0 W/m 25,7 km/h (4 Bft)
28.01.2014 18:02 4,8 C 2,8 C 73 % 996,7 hPa 0,0 l/m 0 min 0 min 0,0 UV-I 0 W/m 25,7 km/h (4 Bft)
28.01.2014 18:04 4,8 C 2,8 C 74 % 996,6 hPa 0,0 l/m 0 min 0 min 0,0 UV-I 0 W/m 23,2 km/h (4 Bft)
28.01.2014 18:06 4,8 C 2,8 C 74 % 996,6 hPa 0,0 l/m 0 min 0 min 0,0 UV-I 0 W/m 30,9 km/h (5 Bft)
28.01.2014 18:08 4,7 C 2,8 C 74 % 996,7 hPa 0,0 l/m 0 min 0 min 0,0 UV-I 0 W/m 18,0 km/h (3 Bft)
28.01.2014 18:10 4,6 C 2,8 C 74 % 996,8 hPa 0,0 l/m 0 min 0 min 0,0 UV-I 0 W/m 15,4 km/h (3 Bft)
28.01.2014 18:12 4,6 C 2,8 C 75 % 996,8 hPa 0,0 l/m 0 min 0 min 0,0 UV-I 0 W/m 18,0 km/h (3 Bft)
28.01.2014 18:14 4,5 C 2,2 C 75 % 996,8 hPa 0,0 l/m 0 min 0 min 0,0 UV-I 0 W/m 12,9 km/h (3 Bft)
28.01.2014 18:16 4,4 C 2,2 C 76 % 996,9 hPa 0,0 l/m 0 min 0 min 0,0 UV-I 0 W/m 12,9 km/h (3 Bft)
28.01.2014 18:18 4,4 C 2,2 C 76 % 996,9 hPa 0,0 l/m 0 min 0 min 0,0 UV-I 0 W/m 12,9 km/h (3 Bft)
28.01.2014 18:20 4,3 C 2,2 C 76 % 996,9 hPa 0,0 l/m 0 min 0 min 0,0 UV-I 0 W/m 15,4 km/h (3 Bft)
28.01.2014 18:22 4,2 C 2,2 C 77 % 996,8 hPa 0,0 l/m 0 min 0 min 0,0 UV-I 0 W/m 12,9 km/h (3 Bft)
28.01.2014 18:24 4,2 C 2,2 C 77 % 996,8 hPa 0,0 l/m 0 min 0 min 0,0 UV-I 0 W/m 15,4 km/h (3 Bft)
28.01.2014 18:26 4,2 C 2,2 C 77 % 996,9 hPa 0,0 l/m 0 min 0 min 0,0 UV-I 0 W/m 7,7 km/h (2 Bft)
28.01.2014 18:28 4,1 C 2,2 C 77 % 996,9 hPa 0,0 l/m 0 min 0 min 0,0 UV-I 0 W/m 12,9 km/h (3 Bft)
28.01.2014 18:30 4,1 C 2,2 C 78 % 996,9 hPa 0,0 l/m 0 min 0 min 0,0 UV-I 0 W/m 12,9 km/h (3 Bft)
28.01.2014 18:32 3,9 C 2,2 C 78 % 996,9 hPa 0,0 l/m 0 min 0 min 0,0 UV-I 0 W/m 12,9 km/h (3 Bft)
28.01.2014 18:34 3,9 C 1,7 C 78 % 996,9 hPa 0,0 l/m 0 min 0 min 0,0 UV-I 0 W/m 0,0 km/h (0 Bft)
28.01.2014 18:36 3,8 C 1,7 C 78 % 996,9 hPa 0,0 l/m 0 min 0 min 0,0 UV-I 0 W/m 10,3 km/h (2 Bft)
28.01.2014 18:38 3,8 C 1,7 C 79 % 996,9 hPa 0,0 l/m 0 min 0 min 0,0 UV-I 0 W/m 0,0 km/h (0 Bft)
28.01.2014 18:40 3,8 C 1,7 C 79 % 996,9 hPa 0,0 l/m 0 min 0 min 0,0 UV-I 0 W/m 7,7 km/h (2 Bft)
28.01.2014 18:42 3,7 C 1,7 C 79 % 997,0 hPa 0,0 l/m 0 min 0 min 0,0 UV-I 0 W/m 7,7 km/h (2 Bft)
28.01.2014 18:44 3,7 C 1,7 C 79 % 997,0 hPa 0,0 l/m 0 min 0 min 0,0 UV-I 0 W/m 10,3 km/h (2 Bft)
28.01.2014 18:46 3,7 C 1,7 C 80 % 997,0 hPa 0,0 l/m 0 min 0 min 0,0 UV-I 0 W/m 10,3 km/h (2 Bft)
28.01.2014 18:48 3,7 C 1,7 C 80 % 997,1 hPa 0,0 l/m 0 min 0 min 0,0 UV-I 0 W/m 10,3 km/h (2 Bft)
28.01.2014 18:50 3,7 C 1,7 C 80 % 997,1 hPa 0,0 l/m 0 min 0 min 0,0 UV-I 0 W/m 7,7 km/h (2 Bft)
28.01.2014 18:52 3,6 C 1,7 C 80 % 997,1 hPa 0,0 l/m 0 min 0 min 0,0 UV-I 0 W/m 12,9 km/h (3 Bft)
28.01.2014 18:54 3,7 C 1,7 C 80 % 997,1 hPa 0,0 l/m 0 min 0 min 0,0 UV-I 0 W/m 5,1 km/h (1 Bft)
28.01.2014 18:56 3,6 C 1,7 C 80 % 997,1 hPa 0,0 l/m 0 min 0 min 0,0 UV-I 0 W/m 12,9 km/h (3 Bft)
28.01.2014 18:58 3,7 C 1,7 C 81 % 997,1 hPa 0,0 l/m 0 min 0 min 0,0 UV-I 0 W/m 18,0 km/h (3 Bft)
28.01.2014 19:00 3,7 C 1,7 C 81 % 997,1 hPa 0,0 l/m 0 min 0 min 0,0 UV-I 0 W/m 10,3 km/h (2 Bft)
28.01.2014 19:02 3,6 C 1,7 C 81 % 997,2 hPa 0,0 l/m 0 min 0 min 0,0 UV-I 0 W/m 10,3 km/h (2 Bft)
28.01.2014 19:04 3,6 C 1,7 C 81 % 997,2 hPa 0,0 l/m 0 min 0 min 0,0 UV-I 0 W/m 10,3 km/h (2 Bft)
28.01.2014 19:06 3,6 C 1,7 C 81 % 997,2 hPa 0,0 l/m 0 min 0 min 0,0 UV-I 0 W/m 12,9 km/h (3 Bft)
28.01.2014 19:08 3,7 C 1,7 C 81 % 997,3 hPa 0,0 l/m 0 min 0 min 0,0 UV-I 0 W/m 15,4 km/h (3 Bft)
28.01.2014 19:10 3,7 C 1,7 C 81 % 997,2 hPa 0,0 l/m 0 min 0 min 0,0 UV-I 0 W/m 10,3 km/h (2 Bft)
28.01.2014 19:12 3,7 C 1,7 C 80 % 997,2 hPa 0,0 l/m 0 min 0 min 0,0 UV-I 0 W/m 18,0 km/h (3 Bft)
28.01.2014 19:14 3,7 C 1,7 C 80 % 997,2 hPa 0,0 l/m 0 min 0 min 0,0 UV-I 0 W/m 15,4 km/h (3 Bft)
28.01.2014 19:16 3,7 C 1,7 C 80 % 997,2 hPa 0,0 l/m 0 min 0 min 0,0 UV-I 0 W/m 10,3 km/h (2 Bft)
28.01.2014 19:18 3,7 C 1,7 C 80 % 997,2 hPa 0,0 l/m 0 min 0 min 0,0 UV-I 0 W/m 10,3 km/h (2 Bft)
28.01.2014 19:20 3,6 C 1,7 C 80 % 997,3 hPa 0,0 l/m 0 min 0 min 0,0 UV-I 0 W/m 12,9 km/h (3 Bft)
28.01.2014 19:22 3,6 C 1,7 C 80 % 997,2 hPa 0,0 l/m 0 min 0 min 0,0 UV-I 0 W/m 20,6 km/h (4 Bft)
28.01.2014 19:24 3,6 C 1,7 C 80 % 997,2 hPa 0,0 l/m 0 min 0 min 0,0 UV-I 0 W/m 7,7 km/h (2 Bft)
28.01.2014 19:26 3,6 C 1,7 C 80 % 997,3 hPa 0,0 l/m 0 min 0 min 0,0 UV-I 0 W/m 7,7 km/h (2 Bft)
28.01.2014 19:28 3,6 C 1,7 C 81 % 997,3 hPa 0,0 l/m 0 min 0 min 0,0 UV-I 0 W/m 7,7 km/h (2 Bft)
28.01.2014 19:30 3,5 C 1,7 C 80 % 997,2 hPa 0,0 l/m 0 min 0 min 0,0 UV-I 0 W/m 0,0 km/h (0 Bft)
28.01.2014 19:32 3,5 C 1,7 C 80 % 997,3 hPa 0,0 l/m 0 min 0 min 0,0 UV-I 0 W/m 7,7 km/h (2 Bft)
28.01.2014 19:34 3,4 C 1,7 C 80 % 997,2 hPa 0,0 l/m 0 min 0 min 0,0 UV-I 0 W/m 5,1 km/h (1 Bft)
28.01.2014 19:36 3,4 C 1,1 C 80 % 997,3 hPa 0,0 l/m 0 min 0 min 0,0 UV-I 0 W/m 7,7 km/h (2 Bft)
28.01.2014 19:38 3,4 C 1,1 C 80 % 997,4 hPa 0,0 l/m 0 min 0 min 0,0 UV-I 0 W/m 0,0 km/h (0 Bft)
28.01.2014 19:40 3,4 C 1,1 C 80 % 997,4 hPa 0,0 l/m 0 min 0 min 0,0 UV-I 0 W/m 0,0 km/h (0 Bft)
28.01.2014 19:42 3,4 C 1,1 C 80 % 997,4 hPa 0,0 l/m 0 min 0 min 0,0 UV-I 0 W/m 0,0 km/h (0 Bft)
28.01.2014 19:44 3,4 C 1,1 C 81 % 997,4 hPa 0,0 l/m 0 min 0 min 0,0 UV-I 0 W/m 0,0 km/h (0 Bft)
28.01.2014 19:46 3,3 C 1,1 C 81 % 997,4 hPa 0,0 l/m 0 min 0 min 0,0 UV-I 0 W/m 0,0 km/h (0 Bft)
28.01.2014 19:48 3,3 C 1,1 C 81 % 997,4 hPa 0,0 l/m 0 min 0 min 0,0 UV-I 0 W/m 0,0 km/h (0 Bft)
28.01.2014 19:50 3,2 C 1,1 C 81 % 997,5 hPa 0,0 l/m 0 min 0 min 0,0 UV-I 0 W/m 10,3 km/h (2 Bft)
28.01.2014 19:52 3,2 C 1,1 C 81 % 997,5 hPa 0,0 l/m 0 min 0 min 0,0 UV-I 0 W/m 0,0 km/h (0 Bft)
28.01.2014 19:54 3,2 C 1,1 C 81 % 997,5 hPa 0,0 l/m 0 min 0 min 0,0 UV-I 0 W/m 0,0 km/h (0 Bft)
28.01.2014 19:56 3,2 C 1,1 C 81 % 997,5 hPa 0,0 l/m 0 min 0 min 0,0 UV-I 0 W/m 0,0 km/h (0 Bft)
28.01.2014 19:58 3,1 C 1,1 C 81 % 997,5 hPa 0,0 l/m 0 min 0 min 0,0 UV-I 0 W/m 0,0 km/h (0 Bft)
28.01.2014 20:00 3,1 C 1,1 C 81 % 997,5 hPa 0,0 l/m 0 min 0 min 0,0 UV-I 0 W/m 0,0 km/h (0 Bft)
28.01.2014 20:02 3,1 C 1,1 C 81 % 997,5 hPa 0,0 l/m 0 min 0 min 0,0 UV-I 0 W/m 0,0 km/h (0 Bft)
28.01.2014 20:04 3,1 C 0,6 C 82 % 997,5 hPa 0,0 l/m 0 min 0 min 0,0 UV-I 0 W/m 0,0 km/h (0 Bft)
28.01.2014 20:06 3,1 C 1,1 C 82 % 997,5 hPa 0,0 l/m 0 min 0 min 0,0 UV-I 0 W/m 7,7 km/h (2 Bft)
28.01.2014 20:08 3,1 C 1,1 C 82 % 997,5 hPa 0,0 l/m 0 min 0 min 0,0 UV-I 0 W/m 5,1 km/h (1 Bft)
28.01.2014 20:10 3,1 C 1,1 C 82 % 997,5 hPa 0,0 l/m 0 min 0 min 0,0 UV-I 0 W/m 10,3 km/h (2 Bft)
28.01.2014 20:12 3,1 C 1,1 C 82 % 997,6 hPa 0,0 l/m 0 min 0 min 0,0 UV-I 0 W/m 10,3 km/h (2 Bft)
28.01.2014 20:14 3,1 C 1,1 C 82 % 997,7 hPa 0,0 l/m 0 min 0 min 0,0 UV-I 0 W/m 7,7 km/h (2 Bft)
28.01.2014 20:16 3,1 C 1,1 C 82 % 997,6 hPa 0,0 l/m 0 min 0 min 0,0 UV-I 0 W/m 5,1 km/h (1 Bft)
28.01.2014 20:18 3,1 C 1,1 C 82 % 997,7 hPa 0,0 l/m 0 min 0 min 0,0 UV-I 0 W/m 0,0 km/h (0 Bft)
28.01.2014 20:20 3,0 C 1,1 C 82 % 997,6 hPa 0,0 l/m 0 min 0 min 0,0 UV-I 0 W/m 2,6 km/h (1 Bft)
28.01.2014 20:22 3,0 C 1,1 C 82 % 997,6 hPa 0,0 l/m 0 min 0 min 0,0 UV-I 0 W/m 5,1 km/h (1 Bft)
28.01.2014 20:24 2,9 C 1,1 C 83 % 997,6 hPa 0,0 l/m 0 min 0 min 0,0 UV-I 0 W/m 7,7 km/h (2 Bft)
28.01.2014 20:26 2,9 C 1,1 C 83 % 997,7 hPa 0,0 l/m 0 min 0 min 0,0 UV-I 0 W/m 0,0 km/h (0 Bft)
28.01.2014 20:28 2,8 C 1,1 C 83 % 997,7 hPa 0,0 l/m 0 min 0 min 0,0 UV-I 0 W/m 2,6 km/h (1 Bft)
28.01.2014 20:30 2,8 C 1,1 C 83 % 997,7 hPa 0,0 l/m 0 min 0 min 0,0 UV-I 0 W/m 0,0 km/h (0 Bft)
28.01.2014 20:32 2,8 C 0,6 C 83 % 997,7 hPa 0,0 l/m 0 min 0 min 0,0 UV-I 0 W/m 0,0 km/h (0 Bft)
28.01.2014 20:34 2,8 C 0,6 C 83 % 997,6 hPa 0,0 l/m 0 min 0 min 0,0 UV-I 0 W/m 2,6 km/h (1 Bft)
28.01.2014 20:36 2,8 C 0,6 C 83 % 997,7 hPa 0,0 l/m 0 min 0 min 0,0 UV-I 0 W/m 5,1 km/h (1 Bft)
28.01.2014 20:38 2,8 C 1,1 C 84 % 997,6 hPa 0,0 l/m 0 min 0 min 0,0 UV-I 0 W/m 2,6 km/h (1 Bft)
28.01.2014 20:40 2,8 C 1,1 C 84 % 997,6 hPa 0,0 l/m 0 min 0 min 0,0 UV-I 0 W/m 5,1 km/h (1 Bft)
28.01.2014 20:42 2,9 C 1,1 C 84 % 997,6 hPa 0,0 l/m 0 min 0 min 0,0 UV-I 0 W/m 5,1 km/h (1 Bft)
28.01.2014 20:44 2,9 C 1,1 C 84 % 997,7 hPa 0,0 l/m 0 min 0 min 0,0 UV-I 0 W/m 7,7 km/h (2 Bft)
28.01.2014 20:46 2,9 C 1,1 C 84 % 997,7 hPa 0,0 l/m 0 min 0 min 0,0 UV-I 0 W/m 7,7 km/h (2 Bft)
28.01.2014 20:48 2,9 C 1,1 C 84 % 997,7 hPa 0,0 l/m 0 min 0 min 0,0 UV-I 0 W/m 7,7 km/h (2 Bft)
28.01.2014 20:50 3,0 C 1,1 C 84 % 997,7 hPa 0,0 l/m 0 min 0 min 0,0 UV-I 0 W/m 0,0 km/h (0 Bft)
28.01.2014 20:52 3,0 C 1,1 C 84 % 997,7 hPa 0,0 l/m 0 min 0 min 0,0 UV-I 0 W/m 0,0 km/h (0 Bft)
28.01.2014 20:54 3,0 C 1,1 C 84 % 997,7 hPa 0,0 l/m 0 min 0 min 0,0 UV-I 0 W/m 7,7 km/h (2 Bft)
28.01.2014 20:56 3,0 C 1,1 C 84 % 997,7 hPa 0,0 l/m 0 min 0 min 0,0 UV-I 0 W/m 2,6 km/h (1 Bft)
28.01.2014 20:58 3,1 C 1,1 C 84 % 997,7 hPa 0,0 l/m 0 min 0 min 0,0 UV-I 0 W/m 7,7 km/h (2 Bft)
28.01.2014 21:00 3,1 C 1,1 C 84 % 997,7 hPa 0,0 l/m 0 min 0 min 0,0 UV-I 0 W/m 5,1 km/h (1 Bft)
28.01.2014 21:02 3,1 C 1,1 C 84 % 997,7 hPa 0,0 l/m 0 min 0 min 0,0 UV-I 0 W/m 0,0 km/h (0 Bft)
28.01.2014 21:04 3,0 C 1,1 C 84 % 997,7 hPa 0,0 l/m 0 min 0 min 0,0 UV-I 0 W/m 2,6 km/h (1 Bft)
28.01.2014 21:06 3,0 C 1,1 C 84 % 997,7 hPa 0,0 l/m 0 min 0 min 0,0 UV-I 0 W/m 0,0 km/h (0 Bft)
28.01.2014 21:08 2,9 C 1,1 C 84 % 997,7 hPa 0,0 l/m 0 min 0 min 0,0 UV-I 0 W/m 5,1 km/h (1 Bft)
28.01.2014 21:10 2,9 C 1,1 C 84 % 997,7 hPa 0,0 l/m 0 min 0 min 0,0 UV-I 0 W/m 12,9 km/h (3 Bft)
28.01.2014 21:12 2,9 C 1,1 C 84 % 997,7 hPa 0,0 l/m 0 min 0 min 0,0 UV-I 0 W/m 2,6 km/h (1 Bft)
28.01.2014 21:14 2,9 C 1,1 C 84 % 997,7 hPa 0,0 l/m 0 min 0 min 0,0 UV-I 0 W/m 15,4 km/h (3 Bft)
28.01.2014 21:16 2,9 C 1,1 C 85 % 997,7 hPa 0,0 l/m 0 min 0 min 0,0 UV-I 0 W/m 7,7 km/h (2 Bft)
28.01.2014 21:18 2,9 C 1,1 C 84 % 997,8 hPa 0,0 l/m 0 min 0 min 0,0 UV-I 0 W/m 12,9 km/h (3 Bft)
28.01.2014 21:20 2,9 C 1,1 C 84 % 997,8 hPa 0,0 l/m 0 min 0 min 0,0 UV-I 0 W/m 12,9 km/h (3 Bft)
28.01.2014 21:22 2,9 C 1,1 C 84 % 997,8 hPa 0,0 l/m 0 min 0 min 0,0 UV-I 0 W/m 15,4 km/h (3 Bft)
28.01.2014 21:24 2,9 C 1,1 C 84 % 997,7 hPa 0,0 l/m 0 min 0 min 0,0 UV-I 0 W/m 7,7 km/h (2 Bft)
28.01.2014 21:26 2,9 C 1,1 C 84 % 997,8 hPa 0,0 l/m 0 min 0 min 0,0 UV-I 0 W/m 12,9 km/h (3 Bft)
28.01.2014 21:28 2,9 C 1,1 C 84 % 997,7 hPa 0,0 l/m 0 min 0 min 0,0 UV-I 0 W/m 7,7 km/h (2 Bft)
28.01.2014 21:30 2,9 C 1,1 C 84 % 997,8 hPa 0,0 l/m 0 min 0 min 0,0 UV-I 0 W/m 10,3 km/h (2 Bft)
28.01.2014 21:32 2,9 C 1,1 C 84 % 997,8 hPa 0,0 l/m 0 min 0 min 0,0 UV-I 0 W/m 15,4 km/h (3 Bft)
28.01.2014 21:34 2,9 C 1,1 C 84 % 997,8 hPa 0,0 l/m 0 min 0 min 0,0 UV-I 0 W/m 10,3 km/h (2 Bft)
28.01.2014 21:36 2,8 C 1,1 C 84 % 997,9 hPa 0,0 l/m 0 min 0 min 0,0 UV-I 0 W/m 5,1 km/h (1 Bft)
28.01.2014 21:38 2,8 C 1,1 C 84 % 997,9 hPa 0,0 l/m 0 min 0 min 0,0 UV-I 0 W/m 10,3 km/h (2 Bft)
28.01.2014 21:40 2,8 C 0,6 C 84 % 997,9 hPa 0,0 l/m 0 min 0 min 0,0 UV-I 0 W/m 7,7 km/h (2 Bft)
28.01.2014 21:42 2,7 C 0,6 C 84 % 997,9 hPa 0,0 l/m 0 min 0 min 0,0 UV-I 0 W/m 7,7 km/h (2 Bft)
28.01.2014 21:44 2,7 C 0,6 C 84 % 997,9 hPa 0,0 l/m 0 min 0 min 0,0 UV-I 0 W/m 7,7 km/h (2 Bft)
28.01.2014 21:46 2,6 C 0,6 C 84 % 997,9 hPa 0,0 l/m 0 min 0 min 0,0 UV-I 0 W/m 15,4 km/h (3 Bft)
28.01.2014 21:48 2,6 C 0,6 C 84 % 997,9 hPa 0,0 l/m 0 min 0 min 0,0 UV-I 0 W/m 7,7 km/h (2 Bft)
28.01.2014 21:50 2,6 C 0,6 C 84 % 997,9 hPa 0,0 l/m 0 min 0 min 0,0 UV-I 0 W/m 18,0 km/h (3 Bft)
28.01.2014 21:52 2,5 C 0,6 C 85 % 997,9 hPa 0,0 l/m 0 min 0 min 0,0 UV-I 0 W/m 10,3 km/h (2 Bft)
28.01.2014 21:54 2,4 C 0,6 C 85 % 997,9 hPa 0,0 l/m 0 min 0 min 0,0 UV-I 0 W/m 10,3 km/h (2 Bft)
28.01.2014 21:56 2,4 C 0,6 C 85 % 997,9 hPa 0,0 l/m 0 min 0 min 0,0 UV-I 0 W/m 7,7 km/h (2 Bft)
28.01.2014 21:58 2,4 C 0,6 C 85 % 997,9 hPa 0,0 l/m 0 min 0 min 0,0 UV-I 0 W/m 7,7 km/h (2 Bft)
28.01.2014 22:00 2,4 C 0,6 C 85 % 997,9 hPa 0,0 l/m 0 min 0 min 0,0 UV-I 0 W/m 10,3 km/h (2 Bft)
28.01.2014 22:02 2,4 C 0,6 C 85 % 997,9 hPa 0,0 l/m 0 min 0 min 0,0 UV-I 0 W/m 7,7 km/h (2 Bft)
28.01.2014 22:04 2,4 C 0,6 C 86 % 997,8 hPa 0,0 l/m 0 min 0 min 0,0 UV-I 0 W/m 7,7 km/h (2 Bft)
28.01.2014 22:06 2,4 C 0,6 C 86 % 997,9 hPa 0,0 l/m 0 min 0 min 0,0 UV-I 0 W/m 10,3 km/h (2 Bft)
28.01.2014 22:08 2,4 C 0,6 C 86 % 997,9 hPa 0,0 l/m 0 min 0 min 0,0 UV-I 0 W/m 7,7 km/h (2 Bft)
28.01.2014 22:10 2,4 C 0,6 C 86 % 997,9 hPa 0,0 l/m 0 min 0 min 0,0 UV-I 0 W/m 10,3 km/h (2 Bft)
28.01.2014 22:12 2,4 C 0,6 C 86 % 997,8 hPa 0,0 l/m 0 min 0 min 0,0 UV-I 0 W/m 10,3 km/h (2 Bft)
28.01.2014 22:14 2,4 C 0,6 C 86 % 997,8 hPa 0,0 l/m 0 min 0 min 0,0 UV-I 0 W/m 7,7 km/h (2 Bft)
28.01.2014 22:16 2,3 C 0,6 C 86 % 997,8 hPa 0,0 l/m 0 min 0 min 0,0 UV-I 0 W/m 10,3 km/h (2 Bft)
28.01.2014 22:18 2,4 C 0,6 C 87 % 997,9 hPa 0,0 l/m 0 min 0 min 0,0 UV-I 0 W/m 10,3 km/h (2 Bft)
28.01.2014 22:20 2,4 C 0,6 C 87 % 997,9 hPa 0,0 l/m 0 min 0 min 0,0 UV-I 0 W/m 12,9 km/h (3 Bft)
28.01.2014 22:22 2,4 C 0,6 C 87 % 997,9 hPa 0,0 l/m 0 min 0 min 0,0 UV-I 0 W/m 10,3 km/h (2 Bft)
28.01.2014 22:24 2,4 C 0,6 C 87 % 997,9 hPa 0,0 l/m 0 min 0 min 0,0 UV-I 0 W/m 10,3 km/h (2 Bft)
28.01.2014 22:26 2,4 C 0,6 C 87 % 997,9 hPa 0,0 l/m 0 min 0 min 0,0 UV-I 0 W/m 7,7 km/h (2 Bft)
28.01.2014 22:28 2,4 C 0,6 C 87 % 997,9 hPa 0,0 l/m 0 min 0 min 0,0 UV-I 0 W/m 7,7 km/h (2 Bft)
28.01.2014 22:30 2,4 C 0,6 C 87 % 997,8 hPa 0,0 l/m 0 min 0 min 0,0 UV-I 0 W/m 10,3 km/h (2 Bft)
28.01.2014 22:32 2,4 C 0,6 C 87 % 997,8 hPa 0,0 l/m 0 min 0 min 0,0 UV-I 0 W/m 7,7 km/h (2 Bft)
28.01.2014 22:34 2,4 C 0,6 C 87 % 997,8 hPa 0,0 l/m 0 min 0 min 0,0 UV-I 0 W/m 12,9 km/h (3 Bft)
28.01.2014 22:36 2,4 C 0,6 C 87 % 997,8 hPa 0,0 l/m 0 min 0 min 0,0 UV-I 0 W/m 12,9 km/h (3 Bft)
28.01.2014 22:38 2,4 C 0,6 C 87 % 997,8 hPa 0,0 l/m 0 min 0 min 0,0 UV-I 0 W/m 15,4 km/h (3 Bft)
28.01.2014 22:40 2,4 C 0,6 C 87 % 997,9 hPa 0,0 l/m 0 min 0 min 0,0 UV-I 0 W/m 12,9 km/h (3 Bft)
28.01.2014 22:42 2,4 C 0,6 C 87 % 997,9 hPa 0,0 l/m 0 min 0 min 0,0 UV-I 0 W/m 12,9 km/h (3 Bft)
28.01.2014 22:44 2,4 C 0,6 C 87 % 997,9 hPa 0,0 l/m 0 min 0 min 0,0 UV-I 0 W/m 12,9 km/h (3 Bft)
28.01.2014 22:46 2,4 C 0,6 C 87 % 997,9 hPa 0,0 l/m 0 min 0 min 0,0 UV-I 0 W/m 10,3 km/h (2 Bft)
28.01.2014 22:48 2,4 C 0,6 C 87 % 997,9 hPa 0,0 l/m 0 min 0 min 0,0 UV-I 0 W/m 15,4 km/h (3 Bft)
28.01.2014 22:50 2,4 C 0,6 C 87 % 997,9 hPa 0,0 l/m 0 min 0 min 0,0 UV-I 0 W/m 18,0 km/h (3 Bft)
28.01.2014 22:52 2,5 C 1,1 C 87 % 997,9 hPa 0,0 l/m 0 min 0 min 0,0 UV-I 0 W/m 20,6 km/h (4 Bft)
28.01.2014 22:54 2,6 C 1,1 C 87 % 997,9 hPa 0,0 l/m 0 min 0 min 0,0 UV-I 0 W/m 10,3 km/h (2 Bft)
28.01.2014 22:56 2,6 C 1,1 C 87 % 997,9 hPa 0,0 l/m 0 min 0 min 0,0 UV-I 0 W/m 15,4 km/h (3 Bft)
28.01.2014 22:58 2,6 C 1,1 C 87 % 998,0 hPa 0,0 l/m 0 min 0 min 0,0 UV-I 0 W/m 10,3 km/h (2 Bft)
28.01.2014 23:00 2,6 C 1,1 C 87 % 997,9 hPa 0,0 l/m 0 min 0 min 0,0 UV-I 0 W/m 12,9 km/h (3 Bft)
28.01.2014 23:02 2,6 C 0,6 C 87 % 998,0 hPa 0,0 l/m 0 min 0 min 0,0 UV-I 0 W/m 12,9 km/h (3 Bft)
28.01.2014 23:04 2,6 C 0,6 C 87 % 998,0 hPa 0,0 l/m 0 min 0 min 0,0 UV-I 0 W/m 10,3 km/h (2 Bft)
28.01.2014 23:06 2,6 C 0,6 C 87 % 998,0 hPa 0,0 l/m 0 min 0 min 0,0 UV-I 0 W/m 7,7 km/h (2 Bft)
28.01.2014 23:08 2,6 C 0,6 C 86 % 998,0 hPa 0,0 l/m 0 min 0 min 0,0 UV-I 0 W/m 10,3 km/h (2 Bft)
28.01.2014 23:10 2,6 C 0,6 C 86 % 998,0 hPa 0,0 l/m 0 min 0 min 0,0 UV-I 0 W/m 5,1 km/h (1 Bft)
28.01.2014 23:12 2,6 C 0,6 C 86 % 998,0 hPa 0,0 l/m 0 min 0 min 0,0 UV-I 0 W/m 10,3 km/h (2 Bft)
28.01.2014 23:14 2,5 C 0,6 C 86 % 998,1 hPa 0,0 l/m 0 min 0 min 0,0 UV-I 0 W/m 12,9 km/h (3 Bft)
28.01.2014 23:16 2,5 C 0,6 C 87 % 998,0 hPa 0,0 l/m 0 min 0 min 0,0 UV-I 0 W/m 12,9 km/h (3 Bft)
28.01.2014 23:18 2,5 C 0,6 C 87 % 998,0 hPa 0,0 l/m 0 min 0 min 0,0 UV-I 0 W/m 10,3 km/h (2 Bft)
28.01.2014 23:20 2,4 C 0,6 C 87 % 998,0 hPa 0,0 l/m 0 min 0 min 0,0 UV-I 0 W/m 7,7 km/h (2 Bft)
28.01.2014 23:22 2,4 C 0,6 C 87 % 998,0 hPa 0,0 l/m 0 min 0 min 0,0 UV-I 0 W/m 12,9 km/h (3 Bft)
28.01.2014 23:24 2,4 C 0,6 C 87 % 997,9 hPa 0,0 l/m 0 min 0 min 0,0 UV-I 0 W/m 12,9 km/h (3 Bft)
28.01.2014 23:26 2,4 C 0,6 C 87 % 998,0 hPa 0,0 l/m 0 min 0 min 0,0 UV-I 0 W/m 20,6 km/h (4 Bft)
28.01.2014 23:28 2,4 C 0,6 C 87 % 998,0 hPa 0,0 l/m 0 min 0 min 0,0 UV-I 0 W/m 7,7 km/h (2 Bft)
28.01.2014 23:30 2,3 C 0,6 C 87 % 998,0 hPa 0,0 l/m 0 min 0 min 0,0 UV-I 0 W/m 15,4 km/h (3 Bft)
28.01.2014 23:32 2,3 C 0,6 C 87 % 998,0 hPa 0,0 l/m 0 min 0 min 0,0 UV-I 0 W/m 20,6 km/h (4 Bft)
28.01.2014 23:34 2,4 C 0,6 C 88 % 997,9 hPa 0,0 l/m 0 min 0 min 0,0 UV-I 0 W/m 15,4 km/h (3 Bft)
28.01.2014 23:36 2,4 C 0,6 C 87 % 997,9 hPa 0,0 l/m 0 min 0 min 0,0 UV-I 0 W/m 10,3 km/h (2 Bft)
28.01.2014 23:38 2,4 C 0,6 C 87 % 997,9 hPa 0,0 l/m 0 min 0 min 0,0 UV-I 0 W/m 7,7 km/h (2 Bft)
28.01.2014 23:40 2,4 C 0,6 C 87 % 997,9 hPa 0,0 l/m 0 min 0 min 0,0 UV-I 0 W/m 20,6 km/h (4 Bft)
28.01.2014 23:42 2,4 C 0,6 C 87 % 997,9 hPa 0,0 l/m 0 min 0 min 0,0 UV-I 0 W/m 15,4 km/h (3 Bft)
28.01.2014 23:44 2,4 C 0,6 C 87 % 998,0 hPa 0,0 l/m 0 min 0 min 0,0 UV-I 0 W/m 15,4 km/h (3 Bft)
28.01.2014 23:46 2,4 C 0,6 C 87 % 997,9 hPa 0,0 l/m 0 min 0 min 0,0 UV-I 0 W/m 12,9 km/h (3 Bft)
28.01.2014 23:48 2,4 C 0,6 C 87 % 997,9 hPa 0,0 l/m 0 min 0 min 0,0 UV-I 0 W/m 10,3 km/h (2 Bft)
28.01.2014 23:50 2,4 C 0,6 C 87 % 997,9 hPa 0,0 l/m 0 min 0 min 0,0 UV-I 0 W/m 10,3 km/h (2 Bft)
28.01.2014 23:52 2,4 C 0,6 C 87 % 997,9 hPa 0,0 l/m 0 min 0 min 0,0 UV-I 0 W/m 12,9 km/h (3 Bft)
28.01.2014 23:54 2,4 C 0,6 C 87 % 997,9 hPa 0,0 l/m 0 min 0 min 0,0 UV-I 0 W/m 15,4 km/h (3 Bft)
28.01.2014 23:56 2,4 C 0,6 C 87 % 998,0 hPa 0,0 l/m 0 min 0 min 0,0 UV-I 0 W/m 10,3 km/h (2 Bft)
28.01.2014 23:58 2,4 C 0,6 C 87 % 998,0 hPa 0,0 l/m 0 min 0 min 0,0 UV-I 0 W/m 12,9 km/h (3 Bft)
_ Min-Zeit 07:14 04:32 14:12 00:28 - - - - - 00:06
Minimum _ 2,1 C 0,6 C 69 % 995,6 hPa - - - - - 0,0 km/h (0 Bft)
_ Max-Zeit 14:12 13:58 07:10 23:14 01:22 09:44 01:20 00:00 12:28 11:04
Maximum _ 7,2 C 5,6 C 95 % 998,1 hPa 0,2 l/m 2 min 2 min 0,0 UV-I 325 W/m 54,1 km/h
S-SO (7 Bft)
Durchschnitt _ 4,0 C 2,3 C 83 % 996,9 hPa #0,2 l/m #5:06 h #6 min. 0,0 UV-I 168 W/m 16,7 km/h (3 Bft)
© 2014 W. Hausmann